| time (UTC) | temp F | wind direction | speed MPH | gust MPH | rain 1hr in | rain 24hr in | rain mn in | humidity % | barometer mb |
| 20260902072308 | 80 | 207 | 2.0 | 6.0 | 0.00 | 0.00 | 0.00 | 82 | 1007.8 |
| 20260902072203 | 80 | 217 | 3.0 | 6.0 | 0.00 | 0.00 | 0.00 | 82 | 1007.7 |
| 20260902072103 | 80 | 206 | 2.0 | 5.0 | 0.00 | 0.00 | 0.00 | 81 | 1007.7 |
| 20260902072005 | 80 | 195 | 1.0 | 4.0 | 0.00 | 0.00 | 0.00 | 81 | 1007.7 |
| 20260902071903 | 80 | 209 | 1.0 | 4.0 | 0.00 | 0.00 | 0.00 | 81 | 1007.7 |
| 20260902071803 | 80 | 210 | 2.0 | 4.0 | 0.00 | 0.00 | 0.00 | 81 | 1007.7 |
| 20260902071702 | 80 | 210 | 2.0 | 4.0 | 0.00 | 0.00 | 0.00 | 81 | 1007.8 |
| 20260902071603 | 80 | 202 | 2.0 | 4.0 | 0.00 | 0.00 | 0.00 | 81 | 1007.7 |
| 20260902071502 | 81 | 197 | 2.0 | 4.0 | 0.00 | 0.00 | 0.00 | 81 | 1007.7 |
| 20260902071404 | 81 | 216 | 2.0 | 4.0 | 0.00 | 0.00 | 0.00 | 81 | 1007.7 |
| 20260902071304 | 81 | 220 | 2.0 | 4.0 | 0.00 | 0.00 | 0.00 | 81 | 1007.7 |
| 20260902071203 | 81 | 220 | 2.0 | 4.0 | 0.00 | 0.00 | 0.00 | 81 | 1007.8 |
| 20260902071102 | 81 | 220 | 2.0 | 4.0 | 0.00 | 0.00 | 0.00 | 81 | 1007.8 |
| 20260902071004 | 81 | 221 | 2.0 | 4.0 | 0.00 | 0.00 | 0.00 | 81 | 1007.8 |
| 20260902070903 | 81 | 221 | 2.0 | 4.0 | 0.00 | 0.00 | 0.00 | 81 | 1007.9 |
| 20260902070804 | 81 | 224 | 1.0 | 3.0 | 0.00 | 0.00 | 0.00 | 81 | 1007.9 |
| 20260902070702 | 81 | 224 | 2.0 | 3.0 | 0.00 | 0.00 | 0.00 | 81 | 1007.9 |
| 20260902070601 | 81 | 214 | 2.0 | 3.0 | 0.00 | 0.00 | 0.00 | 81 | 1007.9 |
| 20260902070544 | 80 | 216 | 1.0 | 3.0 | 0.00 | 0.00 | 0.00 | 81 | 1008.0 |
| 20260902070528 | 81 | 213 | 2.0 | 3.0 | 0.00 | 0.00 | 0.00 | 81 | 1007.9 |
| 20260902070459 | 81 | 213 | 2.0 | 3.0 | 0.00 | 0.00 | 0.00 | 81 | 1007.9 |
| 20260902070433 | 80 | 217 | 1.0 | 3.0 | 0.00 | 0.00 | 0.00 | 81 | 1007.9 |
| 20260902070006 | 80 | 213 | 2.0 | 3.0 | 0.00 | 0.00 | 0.00 | 81 | 1007.9 |
| 20260902065903 | 80 | 214 | 1.0 | 3.0 | 0.00 | 0.00 | 0.00 | 80 | 1007.9 |
| 20260902065803 | 80 | 213 | 1.0 | 2.0 | 0.00 | 0.00 | 0.00 | 80 | 1008.0 |
| 20260902065703 | 80 | 213 | 1.0 | 2.0 | 0.00 | 0.00 | 0.00 | 80 | 1007.9 |
| 20260902065603 | 80 | 213 | 1.0 | 2.0 | 0.00 | 0.00 | 0.00 | 80 | 1007.9 |
| 20260902065503 | 80 | 213 | 1.0 | 2.0 | 0.00 | 0.00 | 0.00 | 80 | 1007.9 |
| 20260902065402 | 80 | 213 | 1.0 | 2.0 | 0.00 | 0.00 | 0.00 | 80 | 1007.8 |
| 20260902065306 | 80 | 213 | 1.0 | 3.0 | 0.00 | 0.00 | 0.00 | 80 | 1007.8 |
| 20260902065203 | 80 | 213 | 1.0 | 3.0 | 0.00 | 0.00 | 0.00 | 80 | 1007.9 |
| 20260902065103 | 80 | 212 | 1.0 | 3.0 | 0.00 | 0.00 | 0.00 | 80 | 1007.9 |
| 20260902065003 | 80 | 212 | 1.0 | 3.0 | 0.00 | 0.00 | 0.00 | 80 | 1007.9 |
| 20260902064905 | 80 | 212 | 1.0 | 3.0 | 0.00 | 0.00 | 0.00 | 80 | 1007.9 |
| 20260902064803 | 80 | 212 | 1.0 | 3.0 | 0.00 | 0.00 | 0.00 | 80 | 1007.8 |
| 20260902064701 | 80 | 212 | 1.0 | 3.0 | 0.00 | 0.00 | 0.00 | 80 | 1007.8 |
| 20260902064603 | 80 | 212 | 1.0 | 3.0 | 0.00 | 0.00 | 0.00 | 80 | 1007.8 |
| 20260902064502 | 80 | 212 | 2.0 | 3.0 | 0.00 | 0.00 | 0.00 | 80 | 1007.8 |
| 20260902064404 | 80 | 212 | 2.0 | 3.0 | 0.00 | 0.00 | 0.00 | 80 | 1007.7 |
| 20260902064302 | 80 | 209 | 2.0 | 3.0 | 0.00 | 0.00 | 0.00 | 80 | 1007.9 |
| 20260902064204 | 80 | 207 | 2.0 | 3.0 | 0.00 | 0.00 | 0.00 | 80 | 1007.9 |
| 20260902064103 | 80 | 207 | 2.0 | 3.0 | 0.00 | 0.00 | 0.00 | 80 | 1007.8 |
| 20260902064002 | 80 | 207 | 2.0 | 3.0 | 0.00 | 0.00 | 0.00 | 80 | 1007.8 |
| 20260902063904 | 80 | 207 | 2.0 | 3.0 | 0.00 | 0.00 | 0.00 | 80 | 1007.8 |
| 20260902063804 | 80 | 207 | 1.0 | 2.0 | 0.00 | 0.00 | 0.00 | 80 | 1007.7 |
| 20260902063704 | 81 | 207 | 1.0 | 2.0 | 0.00 | 0.00 | 0.00 | 79 | 1007.8 |
| 20260902063602 | 80 | 207 | 1.0 | 2.0 | 0.00 | 0.00 | 0.00 | 79 | 1007.7 |
| 20260902063503 | 80 | 207 | 0.0 | 2.0 | 0.00 | 0.00 | 0.00 | 79 | 1007.7 |
| 20260902063405 | 81 | 207 | 0.0 | 2.0 | 0.00 | 0.00 | 0.00 | 79 | 1007.7 |
| 20260902063303 | 81 | 207 | 0.0 | 2.0 | 0.00 | 0.00 | 0.00 | 79 | 1007.8 |
| 20260902063203 | 81 | 207 | 0.0 | 2.0 | 0.00 | 0.00 | 0.00 | 79 | 1007.7 |
| 20260902063103 | 81 | 207 | 1.0 | 2.0 | 0.00 | 0.00 | 0.00 | 79 | 1007.7 |
| 20260902063003 | 81 | 207 | 2.0 | 2.0 | 0.00 | 0.00 | 0.00 | 79 | 1007.7 |
| 20260902062905 | 80 | 207 | 2.0 | 3.0 | 0.00 | 0.00 | 0.00 | 79 | 1007.8 |
| 20260902062804 | 80 | 207 | 2.0 | 3.0 | 0.00 | 0.00 | 0.00 | 79 | 1007.8 |
| 20260902062702 | 80 | 207 | 1.0 | 3.0 | 0.00 | 0.00 | 0.00 | 80 | 1007.8 |
| 20260902062602 | 80 | 207 | 1.0 | 3.0 | 0.00 | 0.00 | 0.00 | 80 | 1007.7 |
| 20260902062502 | 80 | 207 | 0.0 | 3.0 | 0.00 | 0.00 | 0.00 | 80 | 1007.7 |
| 20260902062404 | 80 | 207 | 1.0 | 3.0 | 0.00 | 0.00 | 0.00 | 80 | 1007.7 |
| 20260902062305 | 80 | 207 | 1.0 | 3.0 | 0.00 | 0.00 | 0.00 | 80 | 1007.7 |
| 20260902062204 | 80 | 207 | 1.0 | 3.0 | 0.00 | 0.00 | 0.00 | 80 | 1007.6 |
| 20260902062103 | 80 | 207 | 2.0 | 3.0 | 0.00 | 0.00 | 0.00 | 81 | 1007.6 |
| 20260902062003 | 80 | 207 | 1.0 | 3.0 | 0.00 | 0.00 | 0.00 | 81 | 1007.6 |
| 20260902061903 | 80 | 209 | 1.0 | 4.0 | 0.00 | 0.00 | 0.00 | 81 | 1007.5 |
| 20260902061804 | 80 | 209 | 1.0 | 4.0 | 0.00 | 0.00 | 0.00 | 81 | 1007.6 |
| 20260902061702 | 80 | 216 | 1.0 | 4.0 | 0.00 | 0.00 | 0.00 | 81 | 1007.5 |
| 20260902061602 | 80 | 219 | 1.0 | 4.0 | 0.00 | 0.00 | 0.00 | 81 | 1007.5 |
| 20260902061503 | 80 | 219 | 1.0 | 4.0 | 0.00 | 0.00 | 0.00 | 81 | 1007.6 |
| 20260902061403 | 80 | 206 | 2.0 | 4.0 | 0.00 | 0.00 | 0.00 | 82 | 1007.5 |
| 20260902061303 | 80 | 206 | 2.0 | 4.0 | 0.00 | 0.00 | 0.00 | 82 | 1007.5 |
| 20260902061203 | 80 | 206 | 2.0 | 4.0 | 0.00 | 0.00 | 0.00 | 82 | 1007.5 |
| 20260902061104 | 80 | 206 | 2.0 | 4.0 | 0.00 | 0.00 | 0.00 | 82 | 1007.4 |
| 20260902061004 | 80 | 206 | 2.0 | 4.0 | 0.00 | 0.00 | 0.00 | 82 | 1007.5 |
| 20260902060903 | 80 | 204 | 1.0 | 4.0 | 0.00 | 0.00 | 0.00 | 82 | 1007.5 |
| 20260902060803 | 80 | 210 | 0.0 | 4.0 | 0.00 | 0.00 | 0.00 | 82 | 1007.4 |
| 20260902060703 | 80 | 210 | 1.0 | 4.0 | 0.00 | 0.00 | 0.00 | 82 | 1007.5 |
| 20260902060603 | 80 | 210 | 2.0 | 5.0 | 0.00 | 0.00 | 0.00 | 82 | 1007.5 |
| 20260902060504 | 80 | 212 | 2.0 | 5.0 | 0.00 | 0.00 | 0.00 | 82 | 1007.5 |
| 20260902060402 | 80 | 203 | 2.0 | 5.0 | 0.00 | 0.00 | 0.00 | 82 | 1007.5 |
| 20260902060303 | 80 | 204 | 2.0 | 5.0 | 0.00 | 0.00 | 0.00 | 82 | 1007.5 |
| 20260902060203 | 80 | 207 | 1.0 | 5.0 | 0.00 | 0.00 | 0.00 | 82 | 1007.5 |
| 20260902060002 | 80 | 206 | 2.0 | 5.0 | 0.00 | 0.00 | 0.00 | 82 | 1007.5 |
| 20260902055903 | 80 | 210 | 2.0 | 5.0 | 0.00 | 0.00 | 0.00 | 82 | 1007.5 |
| 20260902055802 | 80 | 217 | 3.0 | 5.0 | 0.00 | 0.00 | 0.00 | 82 | 1007.5 |
| 20260902055704 | 80 | 213 | 3.0 | 5.0 | 0.00 | 0.00 | 0.00 | 82 | 1007.5 |
| 20260902055602 | 80 | 207 | 2.0 | 4.0 | 0.00 | 0.00 | 0.00 | 82 | 1007.5 |
| 20260902055503 | 80 | 214 | 2.0 | 4.0 | 0.00 | 0.00 | 0.00 | 82 | 1007.5 |
| 20260902055402 | 80 | 214 | 2.0 | 4.0 | 0.00 | 0.00 | 0.00 | 82 | 1007.4 |
| 20260902055307 | 80 | 217 | 1.0 | 3.0 | 0.00 | 0.00 | 0.00 | 82 | 1007.5 |
| 20260902055202 | 80 | 213 | 1.0 | 3.0 | 0.00 | 0.00 | 0.00 | 82 | 1007.4 |
| 20260902055104 | 80 | 216 | 2.0 | 3.0 | 0.00 | 0.00 | 0.00 | 82 | 1007.5 |
| 20260902055002 | 80 | 204 | 2.0 | 3.0 | 0.00 | 0.00 | 0.00 | 82 | 1007.4 |
| 20260902054902 | 80 | 210 | 1.0 | 2.0 | 0.00 | 0.00 | 0.00 | 82 | 1007.4 |
| 20260902054803 | 80 | 209 | 1.0 | 2.0 | 0.00 | 0.00 | 0.00 | 82 | 1007.5 |
| 20260902054702 | 80 | 196 | 0.0 | 1.0 | 0.00 | 0.00 | 0.00 | 82 | 1007.5 |
| 20260902054603 | 80 | 200 | 0.0 | 0.0 | 0.00 | 0.00 | 0.00 | 82 | 1007.6 |
| 20260902054503 | 80 | 204 | 0.0 | 0.0 | 0.00 | 0.00 | 0.00 | 82 | 1007.6 |
| 20260902054402 | 80 | 196 | 0.0 | 0.0 | 0.00 | 0.00 | 0.00 | 82 | 1007.6 |
| 20260902054303 | 80 | 196 | 0.0 | 0.0 | 0.00 | 0.00 | 0.00 | 82 | 1007.7 |
| 20260902054201 | 80 | 190 | 0.0 | 0.0 | 0.00 | 0.00 | 0.00 | 82 | 1007.7 |
| 20260902054103 | 80 | 192 | 0.0 | 0.0 | 0.00 | 0.00 | 0.00 | 82 | 1007.8 |
| 20260902054005 | 80 | 196 | 0.0 | 1.0 | 0.00 | 0.00 | 0.00 | 82 | 1007.7 |
| 20260902053903 | 80 | 196 | 0.0 | 1.0 | 0.00 | 0.00 | 0.00 | 82 | 1007.6 |
| 20260902053804 | 80 | 196 | 0.0 | 2.0 | 0.00 | 0.00 | 0.00 | 82 | 1007.8 |
| 20260902053704 | 80 | 196 | 0.0 | 2.0 | 0.00 | 0.00 | 0.00 | 82 | 1007.8 |
| 20260902053602 | 80 | 195 | 0.0 | 2.0 | 0.00 | 0.00 | 0.00 | 82 | 1007.8 |
| 20260902053505 | 80 | 195 | 0.0 | 2.0 | 0.00 | 0.00 | 0.00 | 81 | 1007.8 |
| 20260902053403 | 80 | 189 | 0.0 | 2.0 | 0.00 | 0.00 | 0.00 | 81 | 1007.8 |
| 20260902053304 | 80 | 188 | 0.0 | 2.0 | 0.00 | 0.00 | 0.00 | 81 | 1007.8 |
| 20260902053202 | 80 | 188 | 0.0 | 2.0 | 0.00 | 0.00 | 0.00 | 81 | 1007.8 |
| 20260902053103 | 80 | 185 | 0.0 | 2.0 | 0.00 | 0.00 | 0.00 | 81 | 1007.8 |
| 20260902053002 | 80 | 185 | 1.0 | 2.0 | 0.00 | 0.00 | 0.00 | 81 | 1007.9 |
| 20260902052904 | 80 | 185 | 1.0 | 2.0 | 0.00 | 0.00 | 0.00 | 81 | 1007.9 |
| 20260902052803 | 80 | 130 | 1.0 | 2.0 | 0.00 | 0.00 | 0.00 | 81 | 1007.9 |
| 20260902052705 | 80 | 128 | 1.0 | 2.0 | 0.00 | 0.00 | 0.00 | 81 | 1007.9 |
| 20260902052601 | 80 | 128 | 1.0 | 2.0 | 0.00 | 0.00 | 0.00 | 81 | 1007.8 |
| 20260902052502 | 80 | 128 | 0.0 | 1.0 | 0.00 | 0.00 | 0.00 | 81 | 1007.8 |
| 20260902052404 | 80 | 124 | 0.0 | 0.0 | 0.00 | 0.00 | 0.00 | 81 | 1007.8 |
| 20260902052306 | 80 | 121 | 0.0 | 0.0 | 0.00 | 0.00 | 0.00 | 81 | 1007.7 |
| 20260902052203 | 80 | 121 | 0.0 | 0.0 | 0.00 | 0.00 | 0.00 | 81 | 1007.8 |
| 20260902052104 | 80 | 121 | 0.0 | 0.0 | 0.00 | 0.00 | 0.00 | 81 | 1007.8 |
| 20260902052003 | 80 | 120 | 0.0 | 0.0 | 0.00 | 0.00 | 0.00 | 81 | 1007.8 |
| 20260902051902 | 80 | 120 | 0.0 | 0.0 | 0.00 | 0.00 | 0.00 | 81 | 1007.8 |
| 20260902051802 | 80 | 120 | 0.0 | 0.0 | 0.00 | 0.00 | 0.00 | 81 | 1007.8 |
| 20260902051704 | 80 | 120 | 0.0 | 0.0 | 0.00 | 0.00 | 0.00 | 81 | 1007.7 |
| 20260902051604 | 80 | 120 | 0.0 | 0.0 | 0.00 | 0.00 | 0.00 | 81 | 1007.9 |
| 20260902051505 | 80 | 120 | 0.0 | 0.0 | 0.00 | 0.00 | 0.00 | 81 | 1007.9 |
| 20260902051402 | 80 | 120 | 0.0 | 0.0 | 0.00 | 0.00 | 0.00 | 81 | 1007.9 |
| 20260902051303 | 80 | 120 | 0.0 | 0.0 | 0.00 | 0.00 | 0.00 | 81 | 1007.8 |
| 20260902051202 | 80 | 120 | 0.0 | 0.0 | 0.00 | 0.00 | 0.00 | 81 | 1007.9 |
| 20260902051103 | 80 | 120 | 0.0 | 0.0 | 0.00 | 0.00 | 0.00 | 81 | 1007.9 |
| 20260902051006 | 80 | 120 | 0.0 | 0.0 | 0.00 | 0.00 | 0.00 | 81 | 1007.9 |
| 20260902050903 | 80 | 120 | 0.0 | 0.0 | 0.00 | 0.00 | 0.00 | 81 | 1007.9 |
| 20260902050802 | 80 | 120 | 0.0 | 0.0 | 0.00 | 0.00 | 0.00 | 81 | 1007.9 |
| 20260902050702 | 80 | 120 | 0.0 | 0.0 | 0.00 | 0.00 | 0.00 | 81 | 1007.8 |
| 20260902050603 | 80 | 120 | 0.0 | 0.0 | 0.00 | 0.00 | 0.00 | 81 | 1007.8 |
| 20260902050502 | 80 | 120 | 0.0 | 0.0 | 0.00 | 0.00 | 0.00 | 81 | 1007.9 |
| 20260902050402 | 80 | 120 | 0.0 | 0.0 | 0.00 | 0.00 | 0.00 | 81 | 1007.8 |
| 20260902050303 | 80 | 120 | 0.0 | 0.0 | 0.00 | 0.00 | 0.00 | 81 | 1007.8 |
| 20260902050205 | 80 | 120 | 0.0 | 0.0 | 0.00 | 0.00 | 0.00 | 81 | 1007.8 |
| 20260902050007 | 80 | 120 | 0.0 | 0.0 | 0.00 | 0.00 | 0.00 | 81 | 1007.8 |
| 20260902045905 | 80 | 120 | 0.0 | 0.0 | 0.00 | 0.00 | 0.00 | 81 | 1007.9 |
| 20260902045804 | 80 | 120 | 0.0 | 0.0 | 0.00 | 0.00 | 0.00 | 81 | 1008.0 |
| 20260902045703 | 80 | 120 | 0.0 | 0.0 | 0.00 | 0.00 | 0.00 | 81 | 1008.0 |
| 20260902045602 | 80 | 120 | 0.0 | 0.0 | 0.00 | 0.00 | 0.00 | 81 | 1007.9 |
| 20260902045502 | 80 | 120 | 0.0 | 0.0 | 0.00 | 0.00 | 0.00 | 81 | 1007.9 |
| 20260902045403 | 80 | 120 | 0.0 | 0.0 | 0.00 | 0.00 | 0.00 | 81 | 1008.0 |
| 20260902045306 | 80 | 120 | 0.0 | 0.0 | 0.00 | 0.00 | 0.00 | 81 | 1008.1 |
| 20260902045202 | 80 | 120 | 0.0 | 0.0 | 0.00 | 0.00 | 0.00 | 81 | 1008.0 |
| 20260902045103 | 80 | 120 | 0.0 | 0.0 | 0.00 | 0.00 | 0.00 | 81 | 1008.0 |
| 20260902045004 | 80 | 120 | 0.0 | 0.0 | 0.00 | 0.00 | 0.00 | 81 | 1008.0 |
| 20260902044902 | 81 | 120 | 0.0 | 0.0 | 0.00 | 0.00 | 0.00 | 81 | 1008.0 |
| 20260902044804 | 81 | 120 | 0.0 | 0.0 | 0.00 | 0.00 | 0.00 | 81 | 1008.0 |
| 20260902044702 | 81 | 120 | 0.0 | 0.0 | 0.00 | 0.00 | 0.00 | 81 | 1008.0 |
| 20260902044604 | 80 | 120 | 0.0 | 0.0 | 0.00 | 0.00 | 0.00 | 81 | 1008.0 |
| 20260902044503 | 80 | 120 | 0.0 | 0.0 | 0.00 | 0.00 | 0.00 | 81 | 1008.0 |
| 20260902044404 | 80 | 120 | 0.0 | 0.0 | 0.00 | 0.00 | 0.00 | 81 | 1007.9 |
| 20260902044303 | 80 | 120 | 0.0 | 0.0 | 0.00 | 0.00 | 0.00 | 81 | 1008.0 |
| 20260902044202 | 80 | 120 | 0.0 | 0.0 | 0.00 | 0.00 | 0.00 | 81 | 1008.0 |
| 20260902044103 | 80 | 120 | 0.0 | 0.0 | 0.00 | 0.00 | 0.00 | 81 | 1008.0 |
| 20260902044004 | 80 | 120 | 0.0 | 0.0 | 0.00 | 0.00 | 0.00 | 81 | 1008.0 |
| 20260902043903 | 80 | 120 | 0.0 | 0.0 | 0.00 | 0.00 | 0.00 | 81 | 1008.0 |
| 20260902043803 | 80 | 120 | 0.0 | 0.0 | 0.00 | 0.00 | 0.00 | 81 | 1008.0 |
| 20260902043702 | 80 | 120 | 0.0 | 0.0 | 0.00 | 0.00 | 0.00 | 81 | 1008.0 |
| 20260902043602 | 80 | 120 | 0.0 | 0.0 | 0.00 | 0.00 | 0.00 | 80 | 1008.1 |
| 20260902043504 | 80 | 120 | 0.0 | 0.0 | 0.00 | 0.00 | 0.00 | 80 | 1008.0 |
| 20260902043405 | 80 | 120 | 0.0 | 0.0 | 0.00 | 0.00 | 0.00 | 80 | 1007.9 |
| 20260902043303 | 80 | 120 | 0.0 | 0.0 | 0.00 | 0.00 | 0.00 | 80 | 1007.9 |
| 20260902043202 | 80 | 120 | 0.0 | 0.0 | 0.00 | 0.00 | 0.00 | 80 | 1007.9 |
| 20260902043103 | 80 | 120 | 0.0 | 0.0 | 0.00 | 0.00 | 0.00 | 80 | 1007.9 |
| 20260902043002 | 80 | 120 | 0.0 | 0.0 | 0.00 | 0.00 | 0.00 | 80 | 1008.0 |
| 20260902042902 | 81 | 120 | 0.0 | 0.0 | 0.00 | 0.00 | 0.00 | 80 | 1007.9 |
| 20260902042804 | 81 | 120 | 0.0 | 0.0 | 0.00 | 0.00 | 0.00 | 80 | 1008.0 |
| 20260902042705 | 81 | 120 | 0.0 | 0.0 | 0.00 | 0.00 | 0.00 | 80 | 1007.9 |
| 20260902042602 | 81 | 120 | 0.0 | 0.0 | 0.00 | 0.00 | 0.00 | 80 | 1007.9 |
| 20260902042502 | 81 | 120 | 0.0 | 0.0 | 0.00 | 0.00 | 0.00 | 80 | 1008.0 |
| 20260902042403 | 81 | 120 | 0.0 | 0.0 | 0.00 | 0.00 | 0.00 | 80 | 1008.0 |
| 20260902042307 | 81 | 120 | 0.0 | 0.0 | 0.00 | 0.00 | 0.00 | 80 | 1007.9 |
| 20260902042202 | 81 | 120 | 0.0 | 0.0 | 0.00 | 0.00 | 0.00 | 80 | 1007.9 |
| 20260902042105 | 81 | 120 | 0.0 | 0.0 | 0.00 | 0.00 | 0.00 | 80 | 1007.9 |
| 20260902042005 | 81 | 120 | 0.0 | 0.0 | 0.00 | 0.00 | 0.00 | 80 | 1007.9 |
| 20260902041904 | 81 | 118 | 0.0 | 0.0 | 0.00 | 0.00 | 0.00 | 80 | 1007.9 |
| 20260902041803 | 80 | 118 | 0.0 | 0.0 | 0.00 | 0.00 | 0.00 | 80 | 1008.0 |
| 20260902041702 | 80 | 118 | 0.0 | 0.0 | 0.00 | 0.00 | 0.00 | 79 | 1007.9 |
| 20260902041603 | 80 | 117 | 0.0 | 0.0 | 0.00 | 0.00 | 0.00 | 79 | 1007.9 |
| 20260902041506 | 80 | 117 | 0.0 | 0.0 | 0.00 | 0.00 | 0.00 | 79 | 1007.9 |
| 20260902041402 | 80 | 117 | 0.0 | 0.0 | 0.00 | 0.00 | 0.00 | 79 | 1008.0 |
| 20260902041302 | 80 | 117 | 0.0 | 0.0 | 0.00 | 0.00 | 0.00 | 79 | 1007.9 |
| 20260902041203 | 81 | 116 | 0.0 | 0.0 | 0.00 | 0.00 | 0.00 | 79 | 1007.9 |
| 20260902041103 | 81 | 116 | 0.0 | 0.0 | 0.00 | 0.00 | 0.00 | 79 | 1008.0 |
| 20260902041002 | 81 | 116 | 0.0 | 0.0 | 0.00 | 0.00 | 0.00 | 79 | 1008.0 |
| 20260902040904 | 81 | 86 | 0.0 | 0.0 | 0.00 | 0.00 | 0.00 | 79 | 1008.0 |
| 20260902040802 | 81 | 86 | 0.0 | 0.0 | 0.00 | 0.00 | 0.00 | 79 | 1008.0 |
| 20260902040703 | 81 | 86 | 0.0 | 0.0 | 0.00 | 0.00 | 0.00 | 79 | 1008.0 |
| 20260902040601 | 81 | 85 | 0.0 | 0.0 | 0.00 | 0.00 | 0.00 | 79 | 1008.0 |
| 20260902040503 | 81 | 85 | 0.0 | 0.0 | 0.00 | 0.00 | 0.00 | 79 | 1008.0 |
| 20260902040402 | 81 | 86 | 0.0 | 0.0 | 0.00 | 0.00 | 0.00 | 79 | 1007.9 |
| 20260902040302 | 81 | 86 | 0.0 | 0.0 | 0.00 | 0.00 | 0.00 | 79 | 1008.1 |
| 20260902040205 | 81 | 86 | 0.0 | 0.0 | 0.00 | 0.00 | 0.00 | 79 | 1008.0 |
| 20260902040103 | 81 | 86 | 0.0 | 0.0 | 0.00 | 0.00 | 0.00 | 79 | 1008.1 |
| 20260902040005 | 81 | 85 | 0.0 | 0.0 | 0.00 | 0.00 | 0.00 | 79 | 1008.1 |
| 20260902035903 | 81 | 86 | 0.0 | 0.0 | 0.00 | 0.00 | 0.00 | 79 | 1008.1 |
| 20260902035803 | 81 | 86 | 0.0 | 0.0 | 0.00 | 0.00 | 0.00 | 79 | 1008.1 |
| 20260902035703 | 81 | 85 | 0.0 | 0.0 | 0.00 | 0.00 | 0.00 | 80 | 1008.1 |
| 20260902035604 | 81 | 85 | 0.0 | 0.0 | 0.00 | 0.00 | 0.00 | 80 | 1008.1 |
| 20260902035502 | 81 | 85 | 0.0 | 0.0 | 0.00 | 0.00 | 0.00 | 80 | 1008.1 |
| 20260902035404 | 80 | 85 | 0.0 | 0.0 | 0.00 | 0.00 | 0.00 | 80 | 1008.1 |
| 20260902035305 | 80 | 85 | 0.0 | 0.0 | 0.00 | 0.00 | 0.00 | 80 | 1008.2 |
| 20260902035202 | 80 | 85 | 0.0 | 0.0 | 0.00 | 0.00 | 0.00 | 80 | 1008.2 |
| 20260902035102 | 80 | 85 | 0.0 | 0.0 | 0.00 | 0.00 | 0.00 | 80 | 1008.2 |
| 20260902035005 | 80 | 85 | 0.0 | 0.0 | 0.00 | 0.00 | 0.00 | 80 | 1008.2 |
| 20260902034901 | 80 | 85 | 0.0 | 0.0 | 0.00 | 0.00 | 0.00 | 80 | 1008.2 |
| 20260902034802 | 80 | 85 | 0.0 | 0.0 | 0.00 | 0.00 | 0.00 | 80 | 1008.2 |
| 20260902034703 | 80 | 85 | 0.0 | 0.0 | 0.00 | 0.00 | 0.00 | 80 | 1008.3 |
| 20260902034602 | 80 | 85 | 0.0 | 0.0 | 0.00 | 0.00 | 0.00 | 80 | 1008.2 |
| 20260902034503 | 80 | 85 | 0.0 | 0.0 | 0.00 | 0.00 | 0.00 | 80 | 1008.3 |
| 20260902034404 | 80 | 85 | 0.0 | 0.0 | 0.00 | 0.00 | 0.00 | 80 | 1008.2 |
| 20260902034303 | 81 | 85 | 0.0 | 0.0 | 0.00 | 0.00 | 0.00 | 80 | 1008.2 |
| 20260902034203 | 81 | 85 | 0.0 | 0.0 | 0.00 | 0.00 | 0.00 | 80 | 1008.2 |
| 20260902034103 | 80 | 85 | 0.0 | 0.0 | 0.00 | 0.00 | 0.00 | 80 | 1008.2 |
| 20260902034005 | 80 | 85 | 0.0 | 0.0 | 0.00 | 0.00 | 0.00 | 80 | 1008.3 |
| 20260902033903 | 80 | 85 | 0.0 | 0.0 | 0.00 | 0.00 | 0.00 | 80 | 1008.2 |
| 20260902033803 | 81 | 85 | 0.0 | 0.0 | 0.00 | 0.00 | 0.00 | 80 | 1008.2 |
| 20260902033703 | 81 | 85 | 0.0 | 0.0 | 0.00 | 0.00 | 0.00 | 80 | 1008.2 |
| 20260902033602 | 81 | 85 | 0.0 | 0.0 | 0.00 | 0.00 | 0.00 | 80 | 1008.2 |
| 20260902033503 | 81 | 85 | 0.0 | 0.0 | 0.00 | 0.00 | 0.00 | 80 | 1008.2 |
| 20260902033402 | 81 | 85 | 0.0 | 0.0 | 0.00 | 0.00 | 0.00 | 80 | 1008.3 |
| 20260902033304 | 81 | 85 | 0.0 | 0.0 | 0.00 | 0.00 | 0.00 | 80 | 1008.3 |
| 20260902033203 | 81 | 85 | 0.0 | 0.0 | 0.00 | 0.00 | 0.00 | 80 | 1008.2 |
| 20260902033103 | 81 | 85 | 0.0 | 0.0 | 0.00 | 0.00 | 0.00 | 79 | 1008.2 |
| 20260902033004 | 81 | 85 | 0.0 | 0.0 | 0.00 | 0.00 | 0.00 | 79 | 1008.2 |
| 20260902032903 | 81 | 85 | 0.0 | 0.0 | 0.00 | 0.00 | 0.00 | 79 | 1008.2 |
| 20260902032803 | 81 | 85 | 0.0 | 0.0 | 0.00 | 0.00 | 0.00 | 79 | 1008.2 |
| 20260902032703 | 81 | 85 | 0.0 | 0.0 | 0.00 | 0.00 | 0.00 | 79 | 1008.3 |
| 20260902032604 | 81 | 85 | 0.0 | 0.0 | 0.00 | 0.00 | 0.00 | 79 | 1008.2 |
| 20260902032502 | 81 | 85 | 0.0 | 0.0 | 0.00 | 0.00 | 0.00 | 79 | 1008.2 |
| 20260902032403 | 81 | 85 | 0.0 | 0.0 | 0.00 | 0.00 | 0.00 | 79 | 1008.2 |
| 20260902032306 | 81 | 85 | 0.0 | 0.0 | 0.00 | 0.00 | 0.00 | 79 | 1008.2 |
| 20260902032204 | 81 | 85 | 0.0 | 0.0 | 0.00 | 0.00 | 0.00 | 79 | 1008.0 |
| 20260902032104 | 81 | 85 | 0.0 | 0.0 | 0.00 | 0.00 | 0.00 | 79 | 1008.1 |
| 20260902032002 | 81 | 85 | 0.0 | 0.0 | 0.00 | 0.00 | 0.00 | 79 | 1008.0 |
| 20260902031903 | 81 | 85 | 0.0 | 0.0 | 0.00 | 0.00 | 0.00 | 79 | 1008.0 |
| 20260902031802 | 81 | 85 | 0.0 | 0.0 | 0.00 | 0.00 | 0.00 | 78 | 1008.1 |
| 20260902031704 | 81 | 85 | 0.0 | 0.0 | 0.00 | 0.00 | 0.00 | 79 | 1008.0 |
| 20260902031604 | 81 | 85 | 0.0 | 0.0 | 0.00 | 0.00 | 0.00 | 79 | 1008.0 |
| 20260902031504 | 81 | 85 | 0.0 | 0.0 | 0.00 | 0.00 | 0.00 | 79 | 1008.0 |
| 20260902031403 | 81 | 85 | 0.0 | 0.0 | 0.00 | 0.00 | 0.00 | 78 | 1008.0 |
| 20260902031303 | 81 | 85 | 0.0 | 0.0 | 0.00 | 0.00 | 0.00 | 78 | 1008.0 |
| 20260902031203 | 81 | 85 | 0.0 | 0.0 | 0.00 | 0.00 | 0.00 | 78 | 1008.0 |
| 20260902031103 | 81 | 85 | 0.0 | 0.0 | 0.00 | 0.00 | 0.00 | 78 | 1008.0 |
| 20260902031003 | 81 | 85 | 0.0 | 0.0 | 0.00 | 0.00 | 0.00 | 78 | 1008.0 |
| 20260902030901 | 81 | 85 | 0.0 | 0.0 | 0.00 | 0.00 | 0.00 | 78 | 1008.0 |
| 20260902030802 | 81 | 85 | 0.0 | 0.0 | 0.00 | 0.00 | 0.00 | 78 | 1007.9 |
| 20260902030703 | 81 | 85 | 0.0 | 0.0 | 0.00 | 0.00 | 0.00 | 78 | 1007.9 |
| 20260902030604 | 81 | 85 | 0.0 | 0.0 | 0.00 | 0.00 | 0.00 | 78 | 1007.8 |
| 20260902030503 | 81 | 85 | 0.0 | 0.0 | 0.00 | 0.00 | 0.00 | 78 | 1007.8 |
| 20260902030402 | 81 | 85 | 0.0 | 0.0 | 0.00 | 0.00 | 0.00 | 78 | 1007.9 |
| 20260902030303 | 81 | 85 | 0.0 | 0.0 | 0.00 | 0.00 | 0.00 | 78 | 1007.8 |
| 20260902030203 | 81 | 85 | 0.0 | 0.0 | 0.00 | 0.00 | 0.00 | 78 | 1007.8 |
| 20260902030104 | 81 | 85 | 0.0 | 0.0 | 0.00 | 0.00 | 0.00 | 78 | 1007.8 |
| 20260902030005 | 81 | 85 | 0.0 | 0.0 | 0.00 | 0.00 | 0.00 | 78 | 1007.7 |
| 20260902025903 | 82 | 85 | 0.0 | 0.0 | 0.00 | 0.00 | 0.00 | 78 | 1007.7 |
| 20260902025803 | 82 | 85 | 0.0 | 0.0 | 0.00 | 0.00 | 0.00 | 77 | 1007.7 |
| 20260902025702 | 82 | 85 | 0.0 | 0.0 | 0.00 | 0.00 | 0.00 | 77 | 1007.6 |
| 20260902025604 | 82 | 85 | 0.0 | 0.0 | 0.00 | 0.00 | 0.00 | 77 | 1007.7 |
| 20260902025502 | 82 | 85 | 0.0 | 0.0 | 0.00 | 0.00 | 0.00 | 77 | 1007.7 |
| 20260902025402 | 82 | 85 | 0.0 | 0.0 | 0.00 | 0.00 | 0.00 | 77 | 1007.7 |
| 20260902025306 | 82 | 85 | 0.0 | 0.0 | 0.00 | 0.00 | 0.00 | 77 | 1007.6 |
| 20260902025202 | 82 | 85 | 0.0 | 0.0 | 0.00 | 0.00 | 0.00 | 77 | 1007.7 |
| 20260902025103 | 82 | 85 | 0.0 | 0.0 | 0.00 | 0.00 | 0.00 | 77 | 1007.7 |
| 20260902025002 | 82 | 85 | 0.0 | 0.0 | 0.00 | 0.00 | 0.00 | 77 | 1007.7 |
| 20260902024902 | 82 | 85 | 0.0 | 0.0 | 0.00 | 0.00 | 0.00 | 77 | 1007.7 |
| 20260902024803 | 82 | 85 | 0.0 | 0.0 | 0.00 | 0.00 | 0.00 | 77 | 1007.6 |
| 20260902024702 | 82 | 85 | 0.0 | 0.0 | 0.00 | 0.00 | 0.00 | 78 | 1007.7 |
| 20260902024602 | 82 | 85 | 0.0 | 0.0 | 0.00 | 0.00 | 0.00 | 78 | 1007.7 |
| 20260902024504 | 82 | 85 | 0.0 | 0.0 | 0.00 | 0.00 | 0.00 | 78 | 1007.7 |
| 20260902024403 | 82 | 85 | 0.0 | 0.0 | 0.00 | 0.00 | 0.00 | 78 | 1007.7 |
| 20260902024303 | 82 | 86 | 0.0 | 0.0 | 0.00 | 0.00 | 0.00 | 78 | 1007.7 |
| 20260902024203 | 82 | 86 | 0.0 | 0.0 | 0.00 | 0.00 | 0.00 | 78 | 1007.7 |
| 20260902024102 | 81 | 86 | 0.0 | 0.0 | 0.00 | 0.00 | 0.00 | 78 | 1007.7 |
| 20260902024003 | 81 | 86 | 0.0 | 0.0 | 0.00 | 0.00 | 0.00 | 79 | 1007.6 |
| 20260902023902 | 81 | 86 | 0.0 | 0.0 | 0.00 | 0.00 | 0.00 | 78 | 1007.6 |
| 20260902023804 | 0 | 0.0 | 0.0 | 0.00 | 0.00 | 0.00 | 1007.5 | ||
| 20260902023702 | 0 | 0.0 | 0.0 | 0.00 | 0.00 | 0.00 | 1007.6 | ||
| 20260902023604 | 81 | 86 | 0.0 | 0.0 | 0.00 | 0.00 | 0.00 | 78 | 1007.5 |
| 20260902023505 | 81 | 86 | 0.0 | 0.0 | 0.00 | 0.00 | 0.00 | 78 | 1007.5 |
| 20260902023404 | 81 | 86 | 0.0 | 0.0 | 0.00 | 0.00 | 0.00 | 78 | 1007.4 |
| 20260902023304 | 81 | 86 | 0.0 | 0.0 | 0.00 | 0.00 | 0.00 | 78 | 1007.5 |
| 20260902023204 | 81 | 86 | 0.0 | 0.0 | 0.00 | 0.00 | 0.00 | 78 | 1007.5 |
| 20260902023103 | 81 | 86 | 0.0 | 0.0 | 0.00 | 0.00 | 0.00 | 78 | 1007.5 |
| 20260902023003 | 81 | 86 | 0.0 | 0.0 | 0.00 | 0.00 | 0.00 | 78 | 1007.5 |
| 20260902022903 | 81 | 86 | 0.0 | 0.0 | 0.00 | 0.00 | 0.00 | 78 | 1007.5 |
| 20260902022804 | 81 | 86 | 0.0 | 0.0 | 0.00 | 0.00 | 0.00 | 78 | 1007.5 |
| 20260902022703 | 81 | 86 | 0.0 | 0.0 | 0.00 | 0.00 | 0.00 | 78 | 1007.4 |
| 20260902022603 | 81 | 86 | 0.0 | 0.0 | 0.00 | 0.00 | 0.00 | 78 | 1007.4 |
| 20260902022503 | 81 | 86 | 0.0 | 0.0 | 0.00 | 0.00 | 0.00 | 78 | 1007.4 |
| 20260902022403 | 81 | 86 | 0.0 | 0.0 | 0.00 | 0.00 | 0.00 | 78 | 1007.4 |
| 20260902022305 | 81 | 86 | 0.0 | 0.0 | 0.00 | 0.00 | 0.00 | 78 | 1007.4 |
| 20260902022203 | 81 | 86 | 0.0 | 0.0 | 0.00 | 0.00 | 0.00 | 78 | 1007.4 |
| 20260902022103 | 81 | 86 | 0.0 | 0.0 | 0.00 | 0.00 | 0.00 | 78 | 1007.4 |
| 20260902022005 | 81 | 86 | 0.0 | 0.0 | 0.00 | 0.00 | 0.00 | 78 | 1007.4 |
| 20260902021902 | 81 | 86 | 0.0 | 0.0 | 0.00 | 0.00 | 0.00 | 78 | 1007.4 |
| 20260902021803 | 81 | 86 | 0.0 | 0.0 | 0.00 | 0.00 | 0.00 | 78 | 1007.4 |
| 20260902021704 | 81 | 86 | 0.0 | 0.0 | 0.00 | 0.00 | 0.00 | 78 | 1007.3 |
| 20260902021603 | 82 | 86 | 0.0 | 0.0 | 0.00 | 0.00 | 0.00 | 78 | 1007.4 |
| 20260902021504 | 82 | 86 | 0.0 | 0.0 | 0.00 | 0.00 | 0.00 | 77 | 1007.3 |
| 20260902021404 | 82 | 86 | 0.0 | 0.0 | 0.00 | 0.00 | 0.00 | 77 | 1007.3 |
| 20260902021302 | 82 | 86 | 0.0 | 0.0 | 0.00 | 0.00 | 0.00 | 77 | 1007.3 |
| 20260902021203 | 82 | 86 | 0.0 | 0.0 | 0.00 | 0.00 | 0.00 | 77 | 1007.2 |
| 20260902021103 | 82 | 86 | 0.0 | 0.0 | 0.00 | 0.00 | 0.00 | 77 | 1007.2 |
| 20260902021004 | 82 | 86 | 0.0 | 0.0 | 0.00 | 0.00 | 0.00 | 77 | 1007.3 |
| 20260902020903 | 82 | 86 | 0.0 | 0.0 | 0.00 | 0.00 | 0.00 | 77 | 1007.2 |
| 20260902020804 | 82 | 86 | 0.0 | 0.0 | 0.00 | 0.00 | 0.00 | 77 | 1007.3 |
| 20260902020703 | 82 | 86 | 0.0 | 0.0 | 0.00 | 0.00 | 0.00 | 77 | 1007.2 |
| 20260902020603 | 82 | 86 | 0.0 | 0.0 | 0.00 | 0.00 | 0.00 | 76 | 1007.2 |
| 20260902020503 | 82 | 86 | 0.0 | 0.0 | 0.00 | 0.00 | 0.00 | 76 | 1007.2 |
| 20260902020403 | 82 | 86 | 0.0 | 0.0 | 0.00 | 0.00 | 0.00 | 76 | 1007.2 |
| 20260902020302 | 82 | 86 | 0.0 | 0.0 | 0.00 | 0.00 | 0.00 | 76 | 1007.2 |
| 20260902020204 | 82 | 86 | 0.0 | 0.0 | 0.00 | 0.00 | 0.00 | 76 | 1007.2 |
| 20260902020103 | 82 | 86 | 0.0 | 0.0 | 0.00 | 0.00 | 0.00 | 76 | 1007.1 |
| 20260902020005 | 82 | 86 | 0.0 | 0.0 | 0.00 | 0.00 | 0.00 | 77 | 1007.1 |
| 20260902015903 | 82 | 86 | 0.0 | 0.0 | 0.00 | 0.00 | 0.00 | 77 | 1007.0 |
| 20260902015802 | 82 | 86 | 0.0 | 0.0 | 0.00 | 0.00 | 0.00 | 77 | 1006.9 |
| 20260902015704 | 82 | 86 | 0.0 | 0.0 | 0.00 | 0.00 | 0.00 | 77 | 1006.9 |
| 20260902015602 | 82 | 86 | 0.0 | 0.0 | 0.00 | 0.00 | 0.00 | 77 | 1006.9 |
| 20260902015504 | 82 | 86 | 0.0 | 0.0 | 0.00 | 0.00 | 0.00 | 76 | 1007.0 |
| 20260902015403 | 82 | 86 | 0.0 | 0.0 | 0.00 | 0.00 | 0.00 | 76 | 1006.9 |
| 20260902015305 | 82 | 86 | 0.0 | 0.0 | 0.00 | 0.00 | 0.00 | 76 | 1006.9 |
| 20260902015202 | 82 | 86 | 0.0 | 0.0 | 0.00 | 0.00 | 0.00 | 76 | 1006.8 |
| 20260902015103 | 82 | 86 | 0.0 | 0.0 | 0.00 | 0.00 | 0.00 | 77 | 1006.9 |
| 20260902015003 | 82 | 86 | 0.0 | 0.0 | 0.00 | 0.00 | 0.00 | 76 | 1006.9 |
| 20260902014905 | 82 | 86 | 0.0 | 0.0 | 0.00 | 0.00 | 0.00 | 76 | 1006.9 |
| 20260902014803 | 82 | 86 | 0.0 | 0.0 | 0.00 | 0.00 | 0.00 | 76 | 1006.9 |
| 20260902014702 | 82 | 86 | 0.0 | 0.0 | 0.00 | 0.00 | 0.00 | 76 | 1006.8 |
| 20260902014603 | 82 | 86 | 0.0 | 0.0 | 0.00 | 0.00 | 0.00 | 76 | 1006.8 |
| 20260902014504 | 82 | 86 | 0.0 | 0.0 | 0.00 | 0.00 | 0.00 | 76 | 1006.8 |
| 20260902014404 | 82 | 86 | 0.0 | 0.0 | 0.00 | 0.00 | 0.00 | 76 | 1006.8 |
| 20260902014303 | 82 | 86 | 0.0 | 0.0 | 0.00 | 0.00 | 0.00 | 76 | 1006.8 |
| 20260902014202 | 82 | 86 | 0.0 | 0.0 | 0.00 | 0.00 | 0.00 | 76 | 1006.8 |
| 20260902014101 | 82 | 86 | 0.0 | 0.0 | 0.00 | 0.00 | 0.00 | 76 | 1006.7 |
| 20260902014005 | 83 | 86 | 0.0 | 0.0 | 0.00 | 0.00 | 0.00 | 76 | 1006.8 |
| 20260902013904 | 83 | 86 | 0.0 | 0.0 | 0.00 | 0.00 | 0.00 | 76 | 1006.7 |
| 20260902013804 | 83 | 86 | 0.0 | 0.0 | 0.00 | 0.00 | 0.00 | 76 | 1006.6 |
| 20260902013703 | 83 | 86 | 0.0 | 0.0 | 0.00 | 0.00 | 0.00 | 76 | 1006.6 |
| 20260902013601 | 83 | 86 | 0.0 | 0.0 | 0.00 | 0.00 | 0.00 | 76 | 1006.6 |
| 20260902013503 | 83 | 86 | 0.0 | 0.0 | 0.00 | 0.00 | 0.00 | 76 | 1006.6 |
| 20260902013402 | 83 | 86 | 0.0 | 0.0 | 0.00 | 0.00 | 0.00 | 76 | 1006.6 |
| 20260902013303 | 83 | 86 | 0.0 | 0.0 | 0.00 | 0.00 | 0.00 | 75 | 1006.6 |
| 20260902013201 | 83 | 86 | 0.0 | 0.0 | 0.00 | 0.00 | 0.00 | 75 | 1006.6 |
| 20260902013052 | 83 | 86 | 0.0 | 0.0 | 0.00 | 0.00 | 0.00 | 75 | 1006.6 |
| 20260902012951 | 83 | 86 | 0.0 | 0.0 | 0.00 | 0.00 | 0.00 | 75 | 1006.5 |
| 20260902012847 | 83 | 86 | 0.0 | 0.0 | 0.00 | 0.00 | 0.00 | 75 | 1006.5 |
| 20260902012742 | 83 | 86 | 0.0 | 0.0 | 0.00 | 0.00 | 0.00 | 75 | 1006.5 |
| 20260902012641 | 83 | 86 | 0.0 | 0.0 | 0.00 | 0.00 | 0.00 | 75 | 1006.5 |
| 20260902012542 | 83 | 86 | 0.0 | 0.0 | 0.00 | 0.00 | 0.00 | 75 | 1006.6 |
| 20260902012441 | 83 | 86 | 0.0 | 0.0 | 0.00 | 0.00 | 0.00 | 74 | 1006.6 |
| 20260902012342 | 83 | 86 | 0.0 | 0.0 | 0.00 | 0.00 | 0.00 | 74 | 1006.5 |
| 20260902012241 | 83 | 86 | 0.0 | 0.0 | 0.00 | 0.00 | 0.00 | 75 | 1006.5 |
| 20260902012140 | 83 | 86 | 0.0 | 0.0 | 0.00 | 0.00 | 0.00 | 74 | 1006.6 |
| 20260902012040 | 83 | 86 | 0.0 | 0.0 | 0.00 | 0.00 | 0.00 | 74 | 1006.5 |
| 20260902011941 | 83 | 86 | 0.0 | 0.0 | 0.00 | 0.00 | 0.00 | 74 | 1006.6 |
| 20260902011843 | 83 | 86 | 0.0 | 0.0 | 0.00 | 0.00 | 0.00 | 74 | 1006.5 |
| 20260902011742 | 83 | 86 | 0.0 | 0.0 | 0.00 | 0.00 | 0.00 | 74 | 1006.5 |
| 20260902011642 | 83 | 86 | 0.0 | 0.0 | 0.00 | 0.00 | 0.00 | 74 | 1006.5 |
| 20260902011542 | 83 | 86 | 0.0 | 0.0 | 0.00 | 0.00 | 0.00 | 74 | 1006.6 |
| 20260902011442 | 83 | 86 | 0.0 | 0.0 | 0.00 | 0.00 | 0.00 | 74 | 1006.6 |
| 20260902011340 | 83 | 86 | 0.0 | 0.0 | 0.00 | 0.00 | 0.00 | 74 | 1006.5 |
| 20260902011240 | 83 | 86 | 0.0 | 0.0 | 0.00 | 0.00 | 0.00 | 74 | 1006.6 |
| 20260902011142 | 83 | 86 | 0.0 | 0.0 | 0.00 | 0.00 | 0.00 | 74 | 1006.5 |
| 20260902011042 | 84 | 86 | 0.0 | 1.0 | 0.00 | 0.00 | 0.00 | 74 | 1006.6 |
| 20260902010942 | 84 | 86 | 0.0 | 1.0 | 0.00 | 0.00 | 0.00 | 74 | 1006.6 |
| 20260902010842 | 84 | 86 | 0.0 | 1.0 | 0.00 | 0.00 | 0.00 | 74 | 1006.6 |
| 20260902010741 | 84 | 86 | 0.0 | 1.0 | 0.00 | 0.00 | 0.00 | 74 | 1006.6 |
| 20260902010643 | 84 | 86 | 0.0 | 2.0 | 0.00 | 0.00 | 0.00 | 74 | 1006.6 |
| 20260902010540 | 84 | 86 | 0.0 | 2.0 | 0.00 | 0.00 | 0.00 | 74 | 1006.6 |
| 20260902010441 | 84 | 86 | 0.0 | 2.0 | 0.00 | 0.00 | 0.00 | 74 | 1006.5 |
| 20260902010340 | 84 | 86 | 0.0 | 2.0 | 0.00 | 0.00 | 0.00 | 74 | 1006.6 |
| 20260902010240 | 84 | 86 | 0.0 | 2.0 | 0.00 | 0.00 | 0.00 | 74 | 1006.7 |
| 20260902010142 | 84 | 86 | 0.0 | 2.0 | 0.00 | 0.00 | 0.00 | 74 | 1006.7 |
| 20260902010041 | 84 | 86 | 0.0 | 2.0 | 0.00 | 0.00 | 0.00 | 74 | 1006.7 |
| 20260902005941 | 84 | 86 | 0.0 | 2.0 | 0.00 | 0.00 | 0.00 | 74 | 1006.7 |
| 20260902005840 | 84 | 86 | 0.0 | 2.0 | 0.00 | 0.00 | 0.00 | 74 | 1006.8 |
| 20260902005741 | 84 | 86 | 1.0 | 2.0 | 0.00 | 0.00 | 0.00 | 74 | 1006.7 |
| 20260902005640 | 84 | 86 | 1.0 | 2.0 | 0.00 | 0.00 | 0.00 | 74 | 1006.7 |
| 20260902005541 | 84 | 86 | 0.0 | 2.0 | 0.00 | 0.00 | 0.00 | 74 | 1006.7 |
| 20260902005442 | 84 | 86 | 0.0 | 2.0 | 0.00 | 0.00 | 0.00 | 74 | 1006.8 |
| 20260902005341 | 84 | 86 | 1.0 | 2.0 | 0.00 | 0.00 | 0.00 | 74 | 1006.7 |
| 20260902005242 | 84 | 86 | 1.0 | 2.0 | 0.00 | 0.00 | 0.00 | 74 | 1006.7 |
| 20260902005141 | 84 | 86 | 0.0 | 2.0 | 0.00 | 0.00 | 0.00 | 74 | 1006.7 |
| 20260902005042 | 84 | 86 | 0.0 | 2.0 | 0.00 | 0.00 | 0.00 | 74 | 1006.8 |
| 20260902004941 | 84 | 86 | 0.0 | 2.0 | 0.00 | 0.00 | 0.00 | 74 | 1006.8 |
| 20260902004842 | 84 | 86 | 0.0 | 3.0 | 0.00 | 0.00 | 0.00 | 74 | 1006.8 |
| 20260902004740 | 84 | 86 | 0.0 | 3.0 | 0.00 | 0.00 | 0.00 | 74 | 1006.7 |
| 20260902004639 | 84 | 86 | 0.0 | 3.0 | 0.00 | 0.00 | 0.00 | 73 | 1006.8 |
| 20260902004539 | 84 | 86 | 0.0 | 4.0 | 0.00 | 0.00 | 0.00 | 73 | 1006.8 |
| 20260902004441 | 84 | 86 | 0.0 | 4.0 | 0.00 | 0.00 | 0.00 | 73 | 1006.7 |
| 20260902004340 | 84 | 86 | 1.0 | 4.0 | 0.00 | 0.00 | 0.00 | 73 | 1006.7 |
| 20260902004239 | 84 | 86 | 0.0 | 4.0 | 0.00 | 0.00 | 0.00 | 73 | 1006.7 |
| 20260902004139 | 84 | 86 | 0.0 | 5.0 | 0.00 | 0.00 | 0.00 | 73 | 1006.7 |
| 20260902004039 | 84 | 86 | 0.0 | 5.0 | 0.00 | 0.00 | 0.00 | 73 | 1006.6 |
| 20260902003939 | 84 | 86 | 1.0 | 5.0 | 0.00 | 0.00 | 0.00 | 73 | 1006.8 |
| 20260902003839 | 84 | 89 | 2.0 | 5.0 | 0.00 | 0.00 | 0.00 | 73 | 1006.8 |
| 20260902003739 | 84 | 89 | 2.0 | 5.0 | 0.00 | 0.00 | 0.00 | 73 | 1006.7 |
| 20260902003640 | 84 | 90 | 2.0 | 5.0 | 0.00 | 0.00 | 0.00 | 73 | 1006.8 |
| 20260902003540 | 84 | 90 | 2.0 | 5.0 | 0.00 | 0.00 | 0.00 | 73 | 1006.7 |
| 20260902003441 | 84 | 92 | 3.0 | 5.0 | 0.00 | 0.00 | 0.00 | 73 | 1006.7 |
| 20260902003339 | 84 | 92 | 3.0 | 5.0 | 0.00 | 0.00 | 0.00 | 73 | 1006.7 |
| 20260902003242 | 84 | 90 | 3.0 | 5.0 | 0.00 | 0.00 | 0.00 | 73 | 1006.7 |
| 20260902003139 | 85 | 78 | 2.0 | 3.0 | 0.00 | 0.00 | 0.00 | 73 | 1006.7 |
| 20260902003039 | 85 | 71 | 2.0 | 3.0 | 0.00 | 0.00 | 0.00 | 73 | 1006.7 |
| 20260902002942 | 85 | 69 | 2.0 | 4.0 | 0.00 | 0.00 | 0.00 | 73 | 1006.6 |
| 20260902002841 | 85 | 68 | 1.0 | 4.0 | 0.00 | 0.00 | 0.00 | 73 | 1006.6 |
| 20260902002739 | 85 | 54 | 0.0 | 4.0 | 0.00 | 0.00 | 0.00 | 73 | 1006.7 |
| 20260902002639 | 85 | 54 | 1.0 | 4.0 | 0.00 | 0.00 | 0.00 | 73 | 1006.7 |
| 20260902002539 | 85 | 54 | 1.0 | 4.0 | 0.00 | 0.00 | 0.00 | 73 | 1006.7 |
| 20260902002439 | 85 | 54 | 1.0 | 4.0 | 0.00 | 0.00 | 0.00 | 73 | 1006.7 |
| 20260902002339 | 85 | 54 | 2.0 | 4.0 | 0.00 | 0.00 | 0.00 | 72 | 1006.6 |
| 20260902002241 | 85 | 54 | 3.0 | 4.0 | 0.00 | 0.00 | 0.00 | 72 | 1006.6 |
| 20260902002141 | 85 | 56 | 2.0 | 4.0 | 0.00 | 0.00 | 0.00 | 72 | 1006.7 |
| 20260902002041 | 85 | 51 | 1.0 | 4.0 | 0.00 | 0.00 | 0.00 | 72 | 1006.7 |
| 20260902001941 | 85 | 61 | 0.0 | 4.0 | 0.00 | 0.00 | 0.00 | 73 | 1006.6 |
| 20260902001840 | 85 | 73 | 1.0 | 4.0 | 0.00 | 0.00 | 0.00 | 72 | 1006.7 |
| 20260902001740 | 85 | 71 | 2.0 | 4.0 | 0.00 | 0.00 | 0.00 | 72 | 1006.6 |
| 20260902001641 | 85 | 71 | 2.0 | 4.0 | 0.00 | 0.00 | 0.00 | 72 | 1006.6 |
| 20260902001539 | 85 | 66 | 2.0 | 4.0 | 0.00 | 0.00 | 0.00 | 72 | 1006.6 |
| 20260902001440 | 85 | 62 | 2.0 | 5.0 | 0.00 | 0.00 | 0.00 | 72 | 1006.5 |
| 20260902001340 | 85 | 61 | 1.0 | 5.0 | 0.00 | 0.00 | 0.00 | 72 | 1006.5 |
| 20260902001239 | 85 | 59 | 1.0 | 5.0 | 0.00 | 0.00 | 0.00 | 72 | 1006.5 |
| 20260902001140 | 85 | 47 | 1.0 | 5.0 | 0.00 | 0.00 | 0.00 | 72 | 1006.5 |
| 20260902001039 | 85 | 47 | 2.0 | 5.0 | 0.00 | 0.00 | 0.00 | 72 | 1006.5 |
| 20260902000941 | 85 | 32 | 3.0 | 5.0 | 0.00 | 0.00 | 0.00 | 72 | 1006.6 |
| 20260902000840 | 85 | 100 | 3.0 | 5.0 | 0.00 | 0.00 | 0.00 | 72 | 1006.6 |
| 20260902000738 | 85 | 75 | 2.0 | 5.0 | 0.00 | 0.00 | 0.00 | 72 | 1006.6 |
| 20260902000638 | 85 | 47 | 3.0 | 5.0 | 0.00 | 0.00 | 0.00 | 72 | 1006.6 |
| 20260902000538 | 85 | 48 | 3.0 | 5.0 | 0.00 | 0.00 | 0.00 | 72 | 1006.7 |
| 20260902000440 | 85 | 51 | 3.0 | 5.0 | 0.00 | 0.00 | 0.00 | 72 | 1006.6 |
| 20260902000341 | 85 | 27 | 3.0 | 6.0 | 0.00 | 0.00 | 0.00 | 72 | 1006.6 |
| 20260902000241 | 85 | 21 | 2.0 | 6.0 | 0.00 | 0.00 | 0.00 | 72 | 1006.6 |
| 20260902000139 | 85 | 52 | 2.0 | 6.0 | 0.00 | 0.00 | 0.00 | 72 | 1006.6 |
| 20260902000040 | 85 | 37 | 2.0 | 6.0 | 0.00 | 0.00 | 0.00 | 72 | 1006.6 |
| 20260901235940 | 85 | 32 | 2.0 | 7.0 | 0.00 | 0.00 | 0.00 | 72 | 1006.7 |
| 20260901235840 | 85 | 34 | 2.0 | 7.0 | 0.00 | 0.00 | 0.00 | 72 | 1006.6 |
| 20260901235739 | 85 | 59 | 2.0 | 7.0 | 0.00 | 0.00 | 0.00 | 72 | 1006.6 |
| 20260901235638 | 85 | 59 | 2.0 | 7.0 | 0.00 | 0.00 | 0.00 | 72 | 1006.6 |
| 20260901235540 | 85 | 45 | 3.0 | 7.0 | 0.00 | 0.00 | 0.00 | 72 | 1006.6 |
| 20260901235439 | 85 | 48 | 4.0 | 7.0 | 0.00 | 0.00 | 0.00 | 72 | 1006.5 |
| 20260901235338 | 85 | 32 | 4.0 | 7.0 | 0.00 | 0.00 | 0.00 | 72 | 1006.6 |
| 20260901235239 | 85 | 62 | 4.0 | 7.0 | 0.00 | 0.00 | 0.00 | 72 | 1006.6 |
| 20260901235140 | 85 | 49 | 4.0 | 7.0 | 0.00 | 0.00 | 0.00 | 72 | 1006.6 |
| 20260901235040 | 85 | 55 | 4.0 | 11.0 | 0.00 | 0.00 | 0.00 | 72 | 1006.6 |
| 20260901234940 | 85 | 31 | 4.0 | 11.0 | 0.00 | 0.00 | 0.00 | 72 | 1006.7 |
| 20260901234840 | 85 | 31 | 4.0 | 11.0 | 0.00 | 0.00 | 0.00 | 72 | 1006.6 |
| 20260901234739 | 85 | 65 | 3.0 | 11.0 | 0.00 | 0.00 | 0.00 | 72 | 1006.6 |
| 20260901234639 | 85 | 31 | 3.0 | 11.0 | 0.00 | 0.00 | 0.00 | 72 | 1006.6 |
| 20260901234538 | 85 | 49 | 3.0 | 11.0 | 0.00 | 0.00 | 0.00 | 72 | 1006.6 |
| 20260901234440 | 85 | 354 | 3.0 | 11.0 | 0.00 | 0.00 | 0.00 | 72 | 1006.5 |
| 20260901234339 | 85 | 56 | 3.0 | 11.0 | 0.00 | 0.00 | 0.00 | 72 | 1006.6 |
| 20260901234240 | 85 | 44 | 5.0 | 11.0 | 0.00 | 0.00 | 0.00 | 72 | 1006.6 |
| 20260901234138 | 85 | 100 | 5.0 | 11.0 | 0.00 | 0.00 | 0.00 | 71 | 1006.7 |
| 20260901234040 | 85 | 42 | 5.0 | 12.0 | 0.00 | 0.00 | 0.00 | 72 | 1006.6 |
| 20260901233940 | 85 | 62 | 5.0 | 12.0 | 0.00 | 0.00 | 0.00 | 72 | 1006.7 |
| 20260901233840 | 85 | 42 | 5.0 | 12.0 | 0.00 | 0.00 | 0.00 | 72 | 1006.7 |
| 20260901233740 | 85 | 13 | 4.0 | 13.0 | 0.00 | 0.00 | 0.00 | 71 | 1006.7 |
| 20260901233638 | 85 | 59 | 3.0 | 13.0 | 0.00 | 0.00 | 0.00 | 71 | 1006.8 |
| 20260901233540 | 85 | 55 | 4.0 | 13.0 | 0.00 | 0.00 | 0.00 | 71 | 1006.7 |
| 20260901233439 | 85 | 44 | 6.0 | 13.0 | 0.00 | 0.00 | 0.00 | 71 | 1006.7 |
| 20260901233338 | 85 | 86 | 5.0 | 13.0 | 0.00 | 0.00 | 0.00 | 71 | 1006.7 |
| 20260901233241 | 85 | 66 | 5.0 | 13.0 | 0.00 | 0.00 | 0.00 | 71 | 1006.7 |
| 20260901233139 | 86 | 61 | 7.0 | 13.0 | 0.00 | 0.00 | 0.00 | 71 | 1006.8 |
| 20260901233038 | 86 | 78 | 6.0 | 13.0 | 0.00 | 0.00 | 0.00 | 71 | 1006.7 |
| 20260901232939 | 86 | 51 | 7.0 | 13.0 | 0.00 | 0.00 | 0.00 | 71 | 1006.8 |
| 20260901232839 | 86 | 94 | 8.0 | 13.0 | 0.00 | 0.00 | 0.00 | 71 | 1006.7 |
| 20260901232739 | 86 | 63 | 7.0 | 13.0 | 0.00 | 0.00 | 0.00 | 72 | 1006.7 |
| 20260901232638 | 86 | 48 | 6.0 | 12.0 | 0.00 | 0.00 | 0.00 | 72 | 1006.7 |
| 20260901232540 | 86 | 96 | 5.0 | 12.0 | 0.00 | 0.00 | 0.00 | 72 | 1006.8 |
| 20260901232439 | 86 | 27 | 5.0 | 12.0 | 0.00 | 0.00 | 0.00 | 72 | 1006.7 |
| 20260901232338 | 86 | 351 | 6.0 | 12.0 | 0.00 | 0.00 | 0.00 | 72 | 1006.7 |
| 20260901232239 | 86 | 27 | 5.0 | 11.0 | 0.00 | 0.00 | 0.00 | 72 | 1006.7 |
| 20260901232139 | 86 | 49 | 5.0 | 11.0 | 0.00 | 0.00 | 0.00 | 72 | 1006.7 |
| 20260901232043 | 87 | 0 | 6.0 | 11.0 | 0.00 | 0.00 | 0.00 | 72 | 1006.7 |
| 20260901231938 | 87 | 0 | 6.0 | 10.0 | 0.00 | 0.00 | 0.00 | 72 | 1006.6 |
| 20260901231838 | 87 | 23 | 4.0 | 12.0 | 0.00 | 0.00 | 0.00 | 72 | 1006.7 |
| 20260901231739 | 87 | 37 | 6.0 | 14.0 | 0.00 | 0.00 | 0.00 | 71 | 1006.6 |
| 20260901231637 | 87 | 37 | 6.0 | 14.0 | 0.00 | 0.00 | 0.00 | 71 | 1006.7 |
| 20260901231537 | 87 | 37 | 6.0 | 14.0 | 0.00 | 0.00 | 0.00 | 71 | 1006.7 |
| 20260901231437 | 87 | 37 | 6.0 | 14.0 | 0.00 | 0.00 | 0.00 | 71 | 1006.7 |
| 20260901231337 | 87 | 37 | 6.0 | 14.0 | 0.00 | 0.00 | 0.00 | 71 | 1006.7 |
| 20260901231237 | 87 | 37 | 6.0 | 14.0 | 0.00 | 0.00 | 0.00 | 71 | 1006.7 |
| 20260901231136 | 87 | 37 | 6.0 | 14.0 | 0.00 | 0.00 | 0.00 | 71 | 1006.7 |
| 20260901231037 | 88 | 49 | 7.0 | 14.0 | 0.00 | 0.00 | 0.00 | 71 | 1006.7 |
| 20260901230936 | 88 | 110 | 8.0 | 16.0 | 0.00 | 0.00 | 0.00 | 71 | 1006.7 |
| 20260901230835 | 88 | 42 | 6.0 | 16.0 | 0.00 | 0.00 | 0.00 | 70 | 1006.6 |
| 20260901230737 | 88 | 71 | 5.0 | 16.0 | 0.00 | 0.00 | 0.00 | 70 | 1006.7 |
| 20260901230635 | 88 | 47 | 6.0 | 16.0 | 0.00 | 0.00 | 0.00 | 70 | 1006.6 |
| 20260901230536 | 89 | 42 | 8.0 | 16.0 | 0.00 | 0.00 | 0.00 | 69 | 1006.7 |
| 20260901230435 | 89 | 87 | 8.0 | 16.0 | 0.00 | 0.00 | 0.00 | 69 | 1006.6 |
| 20260901230337 | 89 | 35 | 7.0 | 16.0 | 0.00 | 0.00 | 0.00 | 68 | 1006.7 |
| 20260901230236 | 89 | 42 | 6.0 | 16.0 | 0.00 | 0.00 | 0.00 | 68 | 1006.7 |
| 20260901230136 | 90 | 42 | 8.0 | 16.0 | 0.00 | 0.00 | 0.00 | 67 | 1006.8 |
| 20260901230035 | 90 | 49 | 7.0 | 16.0 | 0.00 | 0.00 | 0.00 | 67 | 1006.8 |
| 20260901225935 | 90 | 345 | 7.0 | 15.0 | 0.00 | 0.00 | 0.00 | 66 | 1006.9 |
| 20260901225836 | 91 | 82 | 10.0 | 15.0 | 0.00 | 0.00 | 0.00 | 65 | 1006.8 |
| 20260901225738 | 91 | 21 | 9.0 | 15.0 | 0.00 | 0.00 | 0.00 | 64 | 1006.7 |
| 20260901225635 | 91 | 8 | 6.0 | 12.0 | 0.00 | 0.00 | 0.00 | 64 | 1006.8 |
| 20260901225535 | 91 | 51 | 5.0 | 7.0 | 0.00 | 0.00 | 0.00 | 64 | 1006.7 |
| 20260901225436 | 91 | 23 | 5.0 | 7.0 | 0.00 | 0.00 | 0.00 | 64 | 1006.7 |
| 20260901225336 | 91 | 20 | 4.0 | 7.0 | 0.00 | 0.00 | 0.00 | 64 | 1006.7 |
| 20260901225235 | 91 | 0 | 2.0 | 5.0 | 0.00 | 0.00 | 0.00 | 65 | 1006.7 |
| 20260901225137 | 91 | 62 | 1.0 | 5.0 | 0.00 | 0.00 | 0.00 | 65 | 1006.7 |
| 20260901225036 | 91 | 62 | 1.0 | 5.0 | 0.00 | 0.00 | 0.00 | 64 | 1006.7 |
| 20260901224937 | 91 | 62 | 1.0 | 5.0 | 0.00 | 0.00 | 0.00 | 64 | 1006.7 |
| 20260901224835 | 91 | 62 | 1.0 | 5.0 | 0.00 | 0.00 | 0.00 | 64 | 1006.7 |
| 20260901224737 | 91 | 62 | 2.0 | 5.0 | 0.00 | 0.00 | 0.00 | 64 | 1006.7 |
| 20260901224638 | 91 | 44 | 2.0 | 5.0 | 0.00 | 0.00 | 0.00 | 64 | 1006.7 |
| 20260901224535 | 91 | 42 | 3.0 | 5.0 | 0.00 | 0.00 | 0.00 | 65 | 1006.7 |
| 20260901224437 | 91 | 69 | 2.0 | 3.0 | 0.00 | 0.00 | 0.00 | 64 | 1006.6 |
| 20260901224335 | 91 | 71 | 1.0 | 3.0 | 0.00 | 0.00 | 0.00 | 64 | 1006.7 |
| 20260901224234 | 91 | 75 | 1.0 | 2.0 | 0.00 | 0.00 | 0.00 | 64 | 1006.6 |
| 20260901224136 | 91 | 75 | 1.0 | 2.0 | 0.00 | 0.00 | 0.00 | 64 | 1006.8 |
| 20260901224036 | 91 | 75 | 1.0 | 2.0 | 0.00 | 0.00 | 0.00 | 64 | 1006.7 |
| 20260901223935 | 90 | 75 | 1.0 | 3.0 | 0.00 | 0.00 | 0.00 | 64 | 1006.7 |
| 20260901223837 | 91 | 75 | 1.0 | 3.0 | 0.00 | 0.00 | 0.00 | 64 | 1006.7 |
| 20260901223735 | 91 | 75 | 1.0 | 3.0 | 0.00 | 0.00 | 0.00 | 65 | 1006.7 |
| 20260901223634 | 91 | 75 | 0.0 | 3.0 | 0.00 | 0.00 | 0.00 | 65 | 1006.7 |
| 20260901223535 | 90 | 75 | 0.0 | 3.0 | 0.00 | 0.00 | 0.00 | 65 | 1006.7 |
| 20260901223436 | 90 | 75 | 1.0 | 4.0 | 0.00 | 0.00 | 0.00 | 65 | 1006.7 |
| 20260901223334 | 90 | 75 | 0.0 | 4.0 | 0.00 | 0.00 | 0.00 | 65 | 1006.7 |
| 20260901223234 | 90 | 75 | 1.0 | 4.0 | 0.00 | 0.00 | 0.00 | 65 | 1006.7 |
| 20260901223134 | 90 | 75 | 2.0 | 4.0 | 0.00 | 0.00 | 0.00 | 65 | 1006.8 |
| 20260901223034 | 90 | 75 | 1.0 | 4.0 | 0.00 | 0.00 | 0.00 | 65 | 1006.8 |
| 20260901222937 | 90 | 75 | 1.0 | 4.0 | 0.00 | 0.00 | 0.00 | 65 | 1006.8 |
| 20260901222835 | 90 | 75 | 2.0 | 4.0 | 0.00 | 0.00 | 0.00 | 64 | 1006.8 |
| 20260901222734 | 90 | 75 | 2.0 | 4.0 | 0.00 | 0.00 | 0.00 | 64 | 1006.8 |
| 20260901222635 | 90 | 75 | 2.0 | 4.0 | 0.00 | 0.00 | 0.00 | 64 | 1006.7 |
| 20260901222536 | 90 | 75 | 2.0 | 4.0 | 0.00 | 0.00 | 0.00 | 64 | 1006.8 |
| 20260901222434 | 91 | 93 | 1.0 | 4.0 | 0.00 | 0.00 | 0.00 | 64 | 1006.8 |
| 20260901222332 | 91 | 93 | 1.0 | 5.0 | 0.00 | 0.00 | 0.00 | 64 | 1006.8 |
| 20260901222232 | 91 | 93 | 1.0 | 5.0 | 0.00 | 0.00 | 0.00 | 64 | 1006.8 |
| 20260901222131 | 91 | 94 | 0.0 | 5.0 | 0.00 | 0.00 | 0.00 | 64 | 1006.8 |
| 20260901222031 | 90 | 94 | 0.0 | 5.0 | 0.00 | 0.00 | 0.00 | 64 | 1006.7 |
| 20260901221932 | 90 | 94 | 1.0 | 5.0 | 0.00 | 0.00 | 0.00 | 64 | 1006.7 |
| 20260901221831 | 90 | 94 | 1.0 | 5.0 | 0.00 | 0.00 | 0.00 | 64 | 1006.7 |
| 20260901221731 | 90 | 96 | 1.0 | 5.0 | 0.00 | 0.00 | 0.00 | 65 | 1006.7 |
| 20260901221631 | 90 | 97 | 1.0 | 5.0 | 0.00 | 0.00 | 0.00 | 64 | 1006.8 |
| 20260901221532 | 90 | 97 | 2.0 | 5.0 | 0.00 | 0.00 | 0.00 | 65 | 1006.7 |
| 20260901221431 | 90 | 97 | 4.0 | 5.0 | 0.00 | 0.00 | 0.00 | 64 | 1006.8 |
| 20260901221331 | 90 | 96 | 3.0 | 5.0 | 0.00 | 0.00 | 0.00 | 64 | 1006.7 |
| 20260901221231 | 90 | 96 | 2.0 | 5.0 | 0.00 | 0.00 | 0.00 | 64 | 1006.7 |
| 20260901221132 | 90 | 103 | 1.0 | 3.0 | 0.00 | 0.00 | 0.00 | 64 | 1006.8 |
| 20260901221031 | 90 | 103 | 1.0 | 3.0 | 0.00 | 0.00 | 0.00 | 64 | 1006.7 |
| 20260901220932 | 90 | 103 | 2.0 | 3.0 | 0.00 | 0.00 | 0.00 | 64 | 1006.7 |
| 20260901220829 | 90 | 103 | 2.0 | 3.0 | 0.00 | 0.00 | 0.00 | 64 | 1006.7 |
| 20260901220727 | 90 | 103 | 2.0 | 3.0 | 0.00 | 0.00 | 0.00 | 64 | 1006.8 |
| 20260901220625 | 90 | 104 | 2.0 | 4.0 | 0.00 | 0.00 | 0.00 | 64 | 1006.8 |
| 20260901220522 | 90 | 106 | 1.0 | 4.0 | 0.00 | 0.00 | 0.00 | 64 | 1006.8 |
| 20260901220419 | 90 | 85 | 0.0 | 4.0 | 0.00 | 0.00 | 0.00 | 64 | 1006.9 |
| 20260901220318 | 90 | 85 | 0.0 | 5.0 | 0.00 | 0.00 | 0.00 | 64 | 1006.8 |
| 20260901220214 | 90 | 85 | 0.0 | 5.0 | 0.00 | 0.00 | 0.00 | 64 | 1006.8 |
| 20260901220112 | 90 | 85 | 0.0 | 5.0 | 0.00 | 0.00 | 0.00 | 64 | 1006.9 |
| 20260901220010 | 90 | 85 | 0.0 | 5.0 | 0.00 | 0.00 | 0.00 | 64 | 1007.0 |
| 20260901215910 | 90 | 85 | 1.0 | 5.0 | 0.00 | 0.00 | 0.00 | 64 | 1006.9 |
| 20260901215808 | 90 | 85 | 3.0 | 5.0 | 0.00 | 0.00 | 0.00 | 63 | 1007.0 |
| 20260901215702 | 90 | 85 | 3.0 | 5.0 | 0.00 | 0.00 | 0.00 | 63 | 1007.0 |
| 20260901215603 | 90 | 85 | 3.0 | 5.0 | 0.00 | 0.00 | 0.00 | 64 | 1007.0 |
| 20260901215504 | 90 | 93 | 3.0 | 5.0 | 0.00 | 0.00 | 0.00 | 64 | 1007.1 |
| 20260901215402 | 90 | 89 | 3.0 | 5.0 | 0.00 | 0.00 | 0.00 | 63 | 1006.9 |
| 20260901215305 | 90 | 69 | 3.0 | 4.0 | 0.00 | 0.00 | 0.00 | 64 | 1007.0 |
| 20260901215202 | 90 | 62 | 2.0 | 4.0 | 0.00 | 0.00 | 0.00 | 64 | 1007.0 |
| 20260901215104 | 90 | 11 | 0.0 | 4.0 | 0.00 | 0.00 | 0.00 | 64 | 1007.0 |
| 20260901215004 | 90 | 10 | 0.0 | 4.0 | 0.00 | 0.00 | 0.00 | 64 | 1007.1 |
| 20260901214904 | 90 | 10 | 0.0 | 4.0 | 0.00 | 0.00 | 0.00 | 64 | 1007.0 |
| 20260901214803 | 90 | 10 | 1.0 | 4.0 | 0.00 | 0.00 | 0.00 | 64 | 1007.1 |
| 20260901214703 | 90 | 10 | 2.0 | 4.0 | 0.00 | 0.00 | 0.00 | 64 | 1007.1 |
| 20260901214604 | 90 | 10 | 3.0 | 4.0 | 0.00 | 0.00 | 0.00 | 64 | 1007.2 |
| 20260901214503 | 90 | 11 | 2.0 | 4.0 | 0.00 | 0.00 | 0.00 | 64 | 1007.2 |
| 20260901214403 | 90 | 7 | 1.0 | 5.0 | 0.00 | 0.00 | 0.00 | 64 | 1007.2 |
| 20260901214303 | 90 | 37 | 1.0 | 7.0 | 0.00 | 0.00 | 0.00 | 64 | 1007.2 |
| 20260901214203 | 90 | 37 | 2.0 | 7.0 | 0.00 | 0.00 | 0.00 | 63 | 1007.2 |
| 20260901214102 | 90 | 37 | 2.0 | 7.0 | 0.00 | 0.00 | 0.00 | 63 | 1007.3 |
| 20260901214004 | 90 | 38 | 2.0 | 7.0 | 0.00 | 0.00 | 0.00 | 63 | 1007.2 |
| 20260901213902 | 90 | 37 | 2.0 | 7.0 | 0.00 | 0.00 | 0.00 | 63 | 1007.3 |
| 20260901213804 | 90 | 41 | 2.0 | 7.0 | 0.00 | 0.00 | 0.00 | 63 | 1007.3 |
| 20260901213703 | 90 | 41 | 2.0 | 7.0 | 0.00 | 0.00 | 0.00 | 63 | 1007.2 |
| 20260901213604 | 90 | 41 | 3.0 | 7.0 | 0.00 | 0.00 | 0.00 | 63 | 1007.3 |
| 20260901213503 | 90 | 41 | 4.0 | 7.0 | 0.00 | 0.00 | 0.00 | 62 | 1007.3 |
| 20260901213403 | 90 | 14 | 4.0 | 7.0 | 0.00 | 0.00 | 0.00 | 62 | 1007.3 |
| 20260901213305 | 90 | 16 | 4.0 | 6.0 | 0.00 | 0.00 | 0.00 | 62 | 1007.3 |
| 20260901213203 | 90 | 38 | 2.0 | 6.0 | 0.00 | 0.00 | 0.00 | 62 | 1007.2 |
| 20260901213103 | 90 | 21 | 1.0 | 6.0 | 0.00 | 0.00 | 0.00 | 62 | 1007.3 |
| 20260901213003 | 90 | 24 | 1.0 | 6.0 | 0.00 | 0.00 | 0.00 | 62 | 1007.2 |
| 20260901212903 | 90 | 24 | 2.0 | 7.0 | 0.00 | 0.00 | 0.00 | 62 | 1007.3 |
| 20260901212803 | 90 | 24 | 3.0 | 7.0 | 0.00 | 0.00 | 0.00 | 62 | 1007.2 |
| 20260901212704 | 90 | 25 | 3.0 | 7.0 | 0.00 | 0.00 | 0.00 | 63 | 1007.2 |
| 20260901212602 | 90 | 21 | 2.0 | 7.0 | 0.00 | 0.00 | 0.00 | 63 | 1007.3 |
| 20260901212503 | 90 | 16 | 2.0 | 7.0 | 0.00 | 0.00 | 0.00 | 63 | 1007.2 |
| 20260901212403 | 90 | 345 | 3.0 | 7.0 | 0.00 | 0.00 | 0.00 | 63 | 1007.2 |
| 20260901212306 | 90 | 345 | 3.0 | 7.0 | 0.00 | 0.00 | 0.00 | 63 | 1007.3 |
| 20260901212201 | 90 | 337 | 3.0 | 7.0 | 0.00 | 0.00 | 0.00 | 63 | 1007.2 |
| 20260901212101 | 90 | 333 | 4.0 | 7.0 | 0.00 | 0.00 | 0.00 | 63 | 1007.2 |
| 20260901212005 | 90 | 350 | 5.0 | 7.0 | 0.00 | 0.00 | 0.00 | 62 | 1007.3 |
| 20260901211902 | 90 | 321 | 5.0 | 6.0 | 0.00 | 0.00 | 0.00 | 62 | 1007.2 |
| 20260901211802 | 90 | 343 | 4.0 | 6.0 | 0.00 | 0.00 | 0.00 | 62 | 1007.2 |
| 20260901211703 | 90 | 0 | 4.0 | 6.0 | 0.00 | 0.00 | 0.00 | 62 | 1007.2 |
| 20260901211603 | 90 | 0 | 3.0 | 6.0 | 0.00 | 0.00 | 0.00 | 62 | 1007.2 |
| 20260901211503 | 90 | 4 | 4.0 | 7.0 | 0.00 | 0.00 | 0.00 | 62 | 1007.2 |
| 20260901211403 | 90 | 17 | 5.0 | 7.0 | 0.00 | 0.00 | 0.00 | 62 | 1007.2 |
| 20260901211302 | 90 | 17 | 4.0 | 7.0 | 0.00 | 0.00 | 0.00 | 62 | 1007.2 |
| 20260901211203 | 90 | 358 | 4.0 | 7.0 | 0.00 | 0.00 | 0.00 | 62 | 1007.2 |
| 20260901211101 | 90 | 0 | 4.0 | 7.0 | 0.00 | 0.00 | 0.00 | 62 | 1007.2 |
| 20260901211004 | 90 | 0 | 4.0 | 7.0 | 0.00 | 0.00 | 0.00 | 62 | 1007.2 |
| 20260901210902 | 90 | 17 | 3.0 | 7.0 | 0.00 | 0.00 | 0.00 | 61 | 1007.1 |
| 20260901210802 | 90 | 17 | 4.0 | 7.0 | 0.00 | 0.00 | 0.00 | 61 | 1007.1 |
| 20260901210703 | 90 | 42 | 5.0 | 7.0 | 0.00 | 0.00 | 0.00 | 61 | 1007.1 |
| 20260901210603 | 90 | 18 | 4.0 | 7.0 | 0.00 | 0.00 | 0.00 | 61 | 1007.2 |
| 20260901210504 | 90 | 49 | 3.0 | 7.0 | 0.00 | 0.00 | 0.00 | 63 | 1007.1 |
| 20260901210403 | 90 | 347 | 3.0 | 7.0 | 0.00 | 0.00 | 0.00 | 62 | 1007.1 |
| 20260901210302 | 89 | 343 | 4.0 | 7.0 | 0.00 | 0.00 | 0.00 | 62 | 1007.1 |
| 20260901210202 | 90 | 351 | 4.0 | 7.0 | 0.00 | 0.00 | 0.00 | 62 | 1007.0 |
| 20260901210005 | 89 | 0 | 3.0 | 7.0 | 0.00 | 0.00 | 0.00 | 63 | 1007.0 |
| 20260901205903 | 89 | 0 | 3.0 | 7.0 | 0.00 | 0.00 | 0.00 | 62 | 1007.1 |
| 20260901205803 | 89 | 0 | 4.0 | 7.0 | 0.00 | 0.00 | 0.00 | 63 | 1007.0 |
| 20260901205705 | 89 | 0 | 4.0 | 7.0 | 0.00 | 0.00 | 0.00 | 63 | 1007.1 |
| 20260901205604 | 89 | 344 | 3.0 | 7.0 | 0.00 | 0.00 | 0.00 | 63 | 1007.1 |
| 20260901205504 | 89 | 341 | 3.0 | 7.0 | 0.00 | 0.00 | 0.00 | 63 | 1007.2 |
| 20260901205402 | 89 | 336 | 2.0 | 7.0 | 0.00 | 0.00 | 0.00 | 63 | 1007.1 |
| 20260901205306 | 89 | 336 | 3.0 | 7.0 | 0.00 | 0.00 | 0.00 | 62 | 1007.1 |
| 20260901205202 | 89 | 345 | 4.0 | 7.0 | 0.00 | 0.00 | 0.00 | 62 | 1007.1 |
| 20260901205102 | 89 | 354 | 5.0 | 7.0 | 0.00 | 0.00 | 0.00 | 62 | 1007.1 |
| 20260901205004 | 90 | 348 | 4.0 | 7.0 | 0.00 | 0.00 | 0.00 | 62 | 1007.2 |
| 20260901204903 | 89 | 0 | 4.0 | 7.0 | 0.00 | 0.00 | 0.00 | 61 | 1007.2 |
| 20260901204804 | 89 | 24 | 4.0 | 7.0 | 0.00 | 0.00 | 0.00 | 61 | 1007.1 |
| 20260901204704 | 90 | 24 | 4.0 | 6.0 | 0.00 | 0.00 | 0.00 | 62 | 1007.2 |
| 20260901204604 | 90 | 27 | 3.0 | 6.0 | 0.00 | 0.00 | 0.00 | 63 | 1007.2 |
| 20260901204503 | 90 | 1 | 3.0 | 6.0 | 0.00 | 0.00 | 0.00 | 62 | 1007.2 |
| 20260901204404 | 89 | 39 | 2.0 | 6.0 | 0.00 | 0.00 | 0.00 | 62 | 1007.3 |
| 20260901204304 | 89 | 62 | 2.0 | 7.0 | 0.00 | 0.00 | 0.00 | 62 | 1007.2 |
| 20260901204201 | 89 | 75 | 2.0 | 7.0 | 0.00 | 0.00 | 0.00 | 62 | 1007.2 |
| 20260901204102 | 89 | 52 | 3.0 | 7.0 | 0.00 | 0.00 | 0.00 | 63 | 1007.3 |
| 20260901204002 | 89 | 56 | 3.0 | 7.0 | 0.00 | 0.00 | 0.00 | 62 | 1007.3 |
| 20260901203902 | 90 | 45 | 3.0 | 7.0 | 0.00 | 0.00 | 0.00 | 61 | 1007.3 |
| 20260901203803 | 90 | 39 | 4.0 | 7.0 | 0.00 | 0.00 | 0.00 | 62 | 1007.3 |
| 20260901203702 | 90 | 51 | 3.0 | 7.0 | 0.00 | 0.00 | 0.00 | 62 | 1007.3 |
| 20260901203602 | 90 | 31 | 3.0 | 7.0 | 0.00 | 0.00 | 0.00 | 63 | 1007.3 |
| 20260901203503 | 90 | 34 | 5.0 | 7.0 | 0.00 | 0.00 | 0.00 | 62 | 1007.4 |
| 20260901203403 | 90 | 4 | 6.0 | 7.0 | 0.00 | 0.00 | 0.00 | 62 | 1007.4 |
| 20260901203305 | 90 | 16 | 4.0 | 9.0 | 0.00 | 0.00 | 0.00 | 63 | 1007.4 |
| 20260901203203 | 90 | 13 | 4.0 | 9.0 | 0.00 | 0.00 | 0.00 | 63 | 1007.4 |
| 20260901203103 | 90 | 44 | 4.0 | 9.0 | 0.00 | 0.00 | 0.00 | 63 | 1007.4 |
| 20260901203002 | 90 | 14 | 5.0 | 9.0 | 0.00 | 0.00 | 0.00 | 63 | 1007.5 |
| 20260901202904 | 90 | 7 | 4.0 | 9.0 | 0.00 | 0.00 | 0.00 | 63 | 1007.4 |
| 20260901202803 | 90 | 32 | 4.0 | 9.0 | 0.00 | 0.00 | 0.00 | 64 | 1007.5 |
| 20260901202703 | 90 | 52 | 4.0 | 9.0 | 0.00 | 0.00 | 0.00 | 63 | 1007.5 |
| 20260901202603 | 90 | 125 | 4.0 | 9.0 | 0.00 | 0.00 | 0.00 | 63 | 1007.5 |
| 20260901202504 | 90 | 69 | 5.0 | 9.0 | 0.00 | 0.00 | 0.00 | 63 | 1007.6 |
| 20260901202404 | 90 | 0 | 5.0 | 10.0 | 0.00 | 0.00 | 0.00 | 63 | 1007.5 |
| 20260901202306 | 90 | 4 | 6.0 | 11.0 | 0.00 | 0.00 | 0.00 | 63 | 1007.6 |
| 20260901202203 | 90 | 0 | 6.0 | 11.0 | 0.00 | 0.00 | 0.00 | 63 | 1007.7 |
| 20260901202101 | 90 | 24 | 5.0 | 11.0 | 0.00 | 0.00 | 0.00 | 63 | 1007.7 |
| 20260901202004 | 91 | 7 | 3.0 | 11.0 | 0.00 | 0.00 | 0.00 | 62 | 1007.7 |
| 20260901201903 | 91 | 34 | 3.0 | 11.0 | 0.00 | 0.00 | 0.00 | 62 | 1007.7 |
| 20260901201803 | 91 | 23 | 5.0 | 11.0 | 0.00 | 0.00 | 0.00 | 62 | 1007.8 |
| 20260901201704 | 91 | 0 | 7.0 | 11.0 | 0.00 | 0.00 | 0.00 | 62 | 1007.9 |
| 20260901201603 | 91 | 0 | 7.0 | 11.0 | 0.00 | 0.00 | 0.00 | 62 | 1007.8 |
| 20260901201502 | 91 | 347 | 7.0 | 11.0 | 0.00 | 0.00 | 0.00 | 61 | 1007.8 |
| 20260901201403 | 91 | 7 | 5.0 | 11.0 | 0.00 | 0.00 | 0.00 | 62 | 1007.8 |
| 20260901201304 | 91 | 0 | 4.0 | 10.0 | 0.00 | 0.00 | 0.00 | 61 | 1007.9 |
| 20260901201203 | 91 | 8 | 6.0 | 10.0 | 0.00 | 0.00 | 0.00 | 61 | 1007.9 |
| 20260901201103 | 91 | 17 | 6.0 | 10.0 | 0.00 | 0.00 | 0.00 | 62 | 1007.9 |
| 20260901201003 | 91 | 32 | 5.0 | 10.0 | 0.00 | 0.00 | 0.00 | 62 | 1008.0 |
| 20260901200904 | 91 | 16 | 5.0 | 10.0 | 0.00 | 0.00 | 0.00 | 61 | 1008.0 |
| 20260901200803 | 91 | 39 | 4.0 | 10.0 | 0.00 | 0.00 | 0.00 | 63 | 1008.0 |
| 20260901200703 | 91 | 16 | 4.0 | 12.0 | 0.00 | 0.00 | 0.00 | 63 | 1008.0 |
| 20260901200603 | 91 | 32 | 4.0 | 12.0 | 0.00 | 0.00 | 0.00 | 62 | 1008.0 |
| 20260901200502 | 91 | 82 | 4.0 | 12.0 | 0.00 | 0.00 | 0.00 | 62 | 1008.0 |
| 20260901200402 | 91 | 56 | 5.0 | 12.0 | 0.00 | 0.00 | 0.00 | 62 | 1008.0 |
| 20260901200303 | 91 | 25 | 6.0 | 12.0 | 0.00 | 0.00 | 0.00 | 61 | 1008.1 |
| 20260901200204 | 91 | 348 | 5.0 | 12.0 | 0.00 | 0.00 | 0.00 | 61 | 1008.1 |
| 20260901200002 | 91 | 51 | 5.0 | 12.0 | 0.00 | 0.00 | 0.00 | 61 | 1008.1 |
| 20260901195903 | 91 | 38 | 7.0 | 12.0 | 0.00 | 0.00 | 0.00 | 60 | 1008.2 |
| 20260901195803 | 92 | 52 | 6.0 | 12.0 | 0.00 | 0.00 | 0.00 | 60 | 1008.1 |
| 20260901195703 | 92 | 358 | 5.0 | 10.0 | 0.00 | 0.00 | 0.00 | 61 | 1008.1 |
| 20260901195601 | 92 | 30 | 5.0 | 10.0 | 0.00 | 0.00 | 0.00 | 60 | 1008.2 |
| 20260901195502 | 91 | 110 | 5.0 | 10.0 | 0.00 | 0.00 | 0.00 | 61 | 1008.1 |
| 20260901195404 | 91 | 14 | 5.0 | 10.0 | 0.00 | 0.00 | 0.00 | 62 | 1008.2 |
| 20260901195305 | 91 | 20 | 4.0 | 10.0 | 0.00 | 0.00 | 0.00 | 62 | 1008.1 |
| 20260901195204 | 91 | 0 | 4.0 | 10.0 | 0.00 | 0.00 | 0.00 | 62 | 1008.2 |
| 20260901195103 | 92 | 347 | 5.0 | 10.0 | 0.00 | 0.00 | 0.00 | 62 | 1008.3 |
| 20260901195005 | 92 | 4 | 6.0 | 10.0 | 0.00 | 0.00 | 0.00 | 62 | 1008.2 |
| 20260901194902 | 92 | 341 | 6.0 | 10.0 | 0.00 | 0.00 | 0.00 | 62 | 1008.3 |
| 20260901194802 | 91 | 10 | 5.0 | 9.0 | 0.00 | 0.00 | 0.00 | 62 | 1008.2 |
| 20260901194703 | 91 | 55 | 3.0 | 7.0 | 0.00 | 0.00 | 0.00 | 62 | 1008.0 |
| 20260901194603 | 91 | 0 | 2.0 | 7.0 | 0.00 | 0.00 | 0.00 | 62 | 1008.2 |
| 20260901194503 | 91 | 340 | 2.0 | 7.0 | 0.00 | 0.00 | 0.00 | 62 | 1008.2 |
| 20260901194403 | 91 | 337 | 4.0 | 7.0 | 0.00 | 0.00 | 0.00 | 62 | 1008.2 |
| 20260901194302 | 91 | 337 | 6.0 | 7.0 | 0.00 | 0.00 | 0.00 | 62 | 1008.2 |
| 20260901194203 | 91 | 347 | 6.0 | 7.0 | 0.00 | 0.00 | 0.00 | 62 | 1008.3 |
| 20260901194102 | 91 | 357 | 5.0 | 7.0 | 0.00 | 0.00 | 0.00 | 63 | 1008.2 |
| 20260901194004 | 91 | 14 | 4.0 | 5.0 | 0.00 | 0.00 | 0.00 | 63 | 1008.2 |
| 20260901193901 | 91 | 1 | 3.0 | 5.0 | 0.00 | 0.00 | 0.00 | 62 | 1008.3 |
| 20260901193803 | 91 | 17 | 3.0 | 5.0 | 0.00 | 0.00 | 0.00 | 63 | 1008.3 |
| 20260901193703 | 91 | 343 | 3.0 | 6.0 | 0.00 | 0.00 | 0.00 | 63 | 1008.3 |
| 20260901193603 | 91 | 35 | 3.0 | 7.0 | 0.00 | 0.00 | 0.00 | 62 | 1008.2 |
| 20260901193505 | 91 | 23 | 4.0 | 7.0 | 0.00 | 0.00 | 0.00 | 61 | 1008.2 |
| 20260901193403 | 91 | 16 | 3.0 | 7.0 | 0.00 | 0.00 | 0.00 | 61 | 1008.3 |
| 20260901193302 | 91 | 41 | 3.0 | 7.0 | 0.00 | 0.00 | 0.00 | 61 | 1008.3 |
| 20260901193202 | 91 | 3 | 3.0 | 7.0 | 0.00 | 0.00 | 0.00 | 60 | 1008.3 |
| 20260901193104 | 91 | 3 | 4.0 | 7.0 | 0.00 | 0.00 | 0.00 | 62 | 1008.3 |
| 20260901193003 | 91 | 47 | 3.0 | 7.0 | 0.00 | 0.00 | 0.00 | 62 | 1008.3 |
| 20260901192903 | 91 | 0 | 4.0 | 7.0 | 0.00 | 0.00 | 0.00 | 61 | 1008.3 |
| 20260901192801 | 91 | 0 | 5.0 | 7.0 | 0.00 | 0.00 | 0.00 | 61 | 1008.3 |
| 20260901192703 | 91 | 8 | 6.0 | 7.0 | 0.00 | 0.00 | 0.00 | 62 | 1008.3 |
| 20260901192603 | 91 | 18 | 5.0 | 7.0 | 0.00 | 0.00 | 0.00 | 61 | 1008.3 |
| 20260901192504 | 91 | 0 | 4.0 | 6.0 | 0.00 | 0.00 | 0.00 | 62 | 1008.2 |
| 20260901192403 | 91 | 44 | 3.0 | 6.0 | 0.00 | 0.00 | 0.00 | 62 | 1008.3 |
| 20260901192306 | 91 | 59 | 2.0 | 6.0 | 0.00 | 0.00 | 0.00 | 62 | 1008.2 |
| 20260901192202 | 91 | 85 | 1.0 | 6.0 | 0.00 | 0.00 | 0.00 | 63 | 1008.2 |
| 20260901192103 | 91 | 83 | 2.0 | 6.0 | 0.00 | 0.00 | 0.00 | 63 | 1008.2 |
| 20260901192002 | 90 | 73 | 2.0 | 6.0 | 0.00 | 0.00 | 0.00 | 64 | 1008.3 |
| 20260901191903 | 90 | 102 | 3.0 | 6.0 | 0.00 | 0.00 | 0.00 | 64 | 1008.2 |
| 20260901191803 | 90 | 104 | 3.0 | 6.0 | 0.00 | 0.00 | 0.00 | 64 | 1008.3 |
| 20260901191703 | 90 | 48 | 2.0 | 6.0 | 0.00 | 0.00 | 0.00 | 63 | 1008.3 |
| 20260901191603 | 90 | 51 | 2.0 | 6.0 | 0.00 | 0.00 | 0.00 | 63 | 1008.3 |
| 20260901191503 | 90 | 51 | 1.0 | 6.0 | 0.00 | 0.00 | 0.00 | 64 | 1008.3 |
| 20260901191403 | 90 | 52 | 2.0 | 6.0 | 0.00 | 0.00 | 0.00 | 64 | 1008.3 |
| 20260901191303 | 90 | 51 | 3.0 | 6.0 | 0.00 | 0.00 | 0.00 | 64 | 1008.4 |
| 20260901191202 | 90 | 54 | 3.0 | 6.0 | 0.00 | 0.00 | 0.00 | 65 | 1008.3 |
| 20260901191103 | 90 | 61 | 2.0 | 6.0 | 0.00 | 0.00 | 0.00 | 65 | 1008.3 |
| 20260901191002 | 90 | 61 | 3.0 | 7.0 | 0.00 | 0.00 | 0.00 | 65 | 1008.4 |
| 20260901190902 | 90 | 63 | 4.0 | 7.0 | 0.00 | 0.00 | 0.00 | 65 | 1008.4 |
| 20260901190802 | 90 | 48 | 4.0 | 7.0 | 0.00 | 0.00 | 0.00 | 64 | 1008.3 |
| 20260901190703 | 90 | 56 | 4.0 | 7.0 | 0.00 | 0.00 | 0.00 | 64 | 1008.3 |
| 20260901190603 | 90 | 4 | 4.0 | 9.0 | 0.00 | 0.00 | 0.00 | 65 | 1008.3 |
| 20260901190504 | 90 | 20 | 2.0 | 9.0 | 0.00 | 0.00 | 0.00 | 65 | 1008.3 |
| 20260901190402 | 90 | 63 | 2.0 | 9.0 | 0.00 | 0.00 | 0.00 | 65 | 1008.4 |
| 20260901190302 | 90 | 83 | 2.0 | 9.0 | 0.00 | 0.00 | 0.00 | 64 | 1008.3 |
| 20260901190204 | 90 | 89 | 3.0 | 9.0 | 0.00 | 0.00 | 0.00 | 64 | 1008.3 |
| 20260901190003 | 90 | 100 | 4.0 | 9.0 | 0.00 | 0.00 | 0.00 | 64 | 1008.5 |
| 20260901185902 | 90 | 94 | 5.0 | 9.0 | 0.00 | 0.00 | 0.00 | 64 | 1008.4 |
| 20260901185804 | 91 | 75 | 6.0 | 9.0 | 0.00 | 0.00 | 0.00 | 63 | 1008.5 |
| 20260901185704 | 91 | 62 | 4.0 | 9.0 | 0.00 | 0.00 | 0.00 | 63 | 1008.5 |
| 20260901185602 | 91 | 58 | 2.0 | 7.0 | 0.00 | 0.00 | 0.00 | 63 | 1008.5 |
| 20260901185505 | 91 | 28 | 3.0 | 7.0 | 0.00 | 0.00 | 0.00 | 63 | 1008.5 |
| 20260901185403 | 91 | 71 | 5.0 | 7.0 | 0.00 | 0.00 | 0.00 | 63 | 1008.5 |
| 20260901185306 | 91 | 28 | 5.0 | 7.0 | 0.00 | 0.00 | 0.00 | 63 | 1008.5 |
| 20260901185203 | 91 | 25 | 5.0 | 7.0 | 0.00 | 0.00 | 0.00 | 63 | 1008.5 |
| 20260901185102 | 91 | 54 | 3.0 | 7.0 | 0.00 | 0.00 | 0.00 | 63 | 1008.5 |
| 20260901185003 | 91 | 73 | 2.0 | 6.0 | 0.00 | 0.00 | 0.00 | 64 | 1008.5 |
| 20260901184903 | 91 | 35 | 2.0 | 6.0 | 0.00 | 0.00 | 0.00 | 63 | 1008.6 |
| 20260901184802 | 91 | 97 | 3.0 | 6.0 | 0.00 | 0.00 | 0.00 | 63 | 1008.6 |
| 20260901184701 | 91 | 80 | 3.0 | 7.0 | 0.00 | 0.00 | 0.00 | 63 | 1008.6 |
| 20260901184603 | 91 | 103 | 2.0 | 7.0 | 0.00 | 0.00 | 0.00 | 63 | 1008.6 |
| 20260901184504 | 91 | 35 | 3.0 | 11.0 | 0.00 | 0.00 | 0.00 | 64 | 1008.6 |
| 20260901184404 | 90 | 0 | 4.0 | 11.0 | 0.00 | 0.00 | 0.00 | 64 | 1008.6 |
| 20260901184305 | 91 | 1 | 4.0 | 11.0 | 0.00 | 0.00 | 0.00 | 64 | 1008.7 |
| 20260901184202 | 91 | 340 | 4.0 | 11.0 | 0.00 | 0.00 | 0.00 | 64 | 1008.7 |
| 20260901184103 | 90 | 17 | 3.0 | 11.0 | 0.00 | 0.00 | 0.00 | 63 | 1008.7 |
| 20260901184004 | 90 | 6 | 2.0 | 11.0 | 0.00 | 0.00 | 0.00 | 63 | 1008.7 |
| 20260901183903 | 90 | 13 | 4.0 | 11.0 | 0.00 | 0.00 | 0.00 | 64 | 1008.7 |
| 20260901183801 | 90 | 11 | 5.0 | 11.0 | 0.00 | 0.00 | 0.00 | 64 | 1008.8 |
| 20260901183703 | 90 | 62 | 5.0 | 11.0 | 0.00 | 0.00 | 0.00 | 64 | 1008.7 |
| 20260901183602 | 90 | 0 | 4.0 | 11.0 | 0.00 | 0.00 | 0.00 | 64 | 1008.7 |
| 20260901183504 | 90 | 62 | 3.0 | 9.0 | 0.00 | 0.00 | 0.00 | 64 | 1008.7 |
| 20260901183404 | 90 | 49 | 4.0 | 9.0 | 0.00 | 0.00 | 0.00 | 64 | 1008.7 |
| 20260901183304 | 90 | 41 | 5.0 | 9.0 | 0.00 | 0.00 | 0.00 | 66 | 1008.7 |
| 20260901183202 | 90 | 0 | 6.0 | 9.0 | 0.00 | 0.00 | 0.00 | 66 | 1008.7 |
| 20260901183102 | 89 | 357 | 6.0 | 9.0 | 0.00 | 0.00 | 0.00 | 66 | 1008.8 |
| 20260901183002 | 89 | 290 | 4.0 | 9.0 | 0.00 | 0.00 | 0.00 | 65 | 1008.7 |
| 20260901182903 | 89 | 327 | 3.0 | 9.0 | 0.00 | 0.00 | 0.00 | 65 | 1008.7 |
| 20260901182803 | 89 | 66 | 3.0 | 10.0 | 0.00 | 0.00 | 0.00 | 66 | 1008.7 |
| 20260901182701 | 89 | 0 | 3.0 | 10.0 | 0.00 | 0.00 | 0.00 | 66 | 1008.8 |
| 20260901182603 | 89 | 330 | 4.0 | 10.0 | 0.00 | 0.00 | 0.00 | 66 | 1008.7 |
| 20260901182502 | 89 | 0 | 5.0 | 10.0 | 0.00 | 0.00 | 0.00 | 66 | 1008.8 |
| 20260901182402 | 89 | 296 | 5.0 | 10.0 | 0.00 | 0.00 | 0.00 | 65 | 1008.8 |
| 20260901182305 | 90 | 347 | 6.0 | 10.0 | 0.00 | 0.00 | 0.00 | 65 | 1008.9 |
| 20260901182202 | 90 | 336 | 6.0 | 10.0 | 0.00 | 0.00 | 0.00 | 65 | 1008.9 |
| 20260901182102 | 90 | 340 | 5.0 | 10.0 | 0.00 | 0.00 | 0.00 | 65 | 1008.9 |
| 20260901182004 | 90 | 0 | 5.0 | 10.0 | 0.00 | 0.00 | 0.00 | 65 | 1008.9 |
| 20260901181902 | 90 | 357 | 6.0 | 10.0 | 0.00 | 0.00 | 0.00 | 65 | 1008.9 |
| 20260901181804 | 90 | 348 | 3.0 | 10.0 | 0.00 | 0.00 | 0.00 | 66 | 1008.9 |
| 20260901181703 | 89 | 11 | 2.0 | 10.0 | 0.00 | 0.00 | 0.00 | 66 | 1008.9 |
| 20260901181604 | 89 | 11 | 3.0 | 10.0 | 0.00 | 0.00 | 0.00 | 65 | 1008.8 |
| 20260901181504 | 89 | 0 | 6.0 | 10.0 | 0.00 | 0.00 | 0.00 | 65 | 1009.0 |
| 20260901181403 | 89 | 16 | 6.0 | 10.0 | 0.00 | 0.00 | 0.00 | 65 | 1008.9 |
| 20260901181303 | 89 | 0 | 7.0 | 10.0 | 0.00 | 0.00 | 0.00 | 65 | 1008.9 |
| 20260901181202 | 89 | 0 | 7.0 | 10.0 | 0.00 | 0.00 | 0.00 | 65 | 1008.9 |
| 20260901181102 | 89 | 357 | 7.0 | 10.0 | 0.00 | 0.00 | 0.00 | 65 | 1008.9 |
| 20260901181002 | 89 | 6 | 4.0 | 10.0 | 0.00 | 0.00 | 0.00 | 65 | 1008.9 |
| 20260901180905 | 89 | 68 | 1.0 | 9.0 | 0.00 | 0.00 | 0.00 | 66 | 1008.9 |
| 20260901180802 | 89 | 30 | 2.0 | 9.0 | 0.00 | 0.00 | 0.00 | 66 | 1009.0 |
| 20260901180704 | 89 | 11 | 4.0 | 9.0 | 0.00 | 0.00 | 0.00 | 66 | 1009.1 |
| 20260901180603 | 89 | 75 | 4.0 | 9.0 | 0.00 | 0.00 | 0.00 | 66 | 1009.0 |
| 20260901180504 | 89 | 71 | 6.0 | 9.0 | 0.00 | 0.00 | 0.00 | 65 | 1009.0 |
| 20260901180403 | 89 | 31 | 6.0 | 9.0 | 0.00 | 0.00 | 0.00 | 65 | 1009.1 |
| 20260901180303 | 90 | 0 | 6.0 | 9.0 | 0.00 | 0.00 | 0.00 | 65 | 1009.1 |
| 20260901180203 | 90 | 44 | 6.0 | 10.0 | 0.00 | 0.00 | 0.00 | 65 | 1009.1 |
| 20260901180105 | 90 | 4 | 5.0 | 12.0 | 0.00 | 0.00 | 0.00 | 65 | 1009.1 |
| 20260901180003 | 90 | 14 | 5.0 | 12.0 | 0.00 | 0.00 | 0.00 | 66 | 1009.1 |
| 20260901175902 | 89 | 343 | 4.0 | 12.0 | 0.00 | 0.00 | 0.00 | 66 | 1009.1 |
| 20260901175803 | 89 | 340 | 5.0 | 12.0 | 0.00 | 0.00 | 0.00 | 66 | 1009.1 |
| 20260901175704 | 89 | 78 | 4.0 | 12.0 | 0.00 | 0.00 | 0.00 | 66 | 1009.2 |
| 20260901175604 | 89 | 4 | 4.0 | 12.0 | 0.00 | 0.00 | 0.00 | 65 | 1009.1 |
| 20260901175503 | 89 | 0 | 5.0 | 12.0 | 0.00 | 0.00 | 0.00 | 65 | 1009.2 |
| 20260901175403 | 89 | 333 | 7.0 | 12.0 | 0.00 | 0.00 | 0.00 | 65 | 1009.2 |
| 20260901175305 | 89 | 0 | 8.0 | 12.0 | 0.00 | 0.00 | 0.00 | 65 | 1009.3 |
| 20260901175202 | 89 | 0 | 8.0 | 12.0 | 0.00 | 0.00 | 0.00 | 65 | 1009.3 |
| 20260901175102 | 89 | 336 | 6.0 | 11.0 | 0.00 | 0.00 | 0.00 | 66 | 1009.2 |
| 20260901175004 | 89 | 25 | 4.0 | 11.0 | 0.00 | 0.00 | 0.00 | 65 | 1009.3 |
| 20260901174901 | 89 | 25 | 6.0 | 11.0 | 0.00 | 0.00 | 0.00 | 65 | 1009.3 |
| 20260901174803 | 89 | 0 | 6.0 | 11.0 | 0.00 | 0.00 | 0.00 | 65 | 1009.3 |
| 20260901174704 | 89 | 30 | 6.0 | 11.0 | 0.00 | 0.00 | 0.00 | 66 | 1009.3 |
| 20260901174602 | 89 | 35 | 6.0 | 11.0 | 0.00 | 0.00 | 0.00 | 66 | 1009.3 |
| 20260901174504 | 89 | 0 | 7.0 | 11.0 | 0.00 | 0.00 | 0.00 | 66 | 1009.4 |
| 20260901174402 | 89 | 344 | 7.0 | 11.0 | 0.00 | 0.00 | 0.00 | 66 | 1009.5 |
| 20260901174303 | 89 | 0 | 7.0 | 11.0 | 0.00 | 0.00 | 0.00 | 66 | 1009.5 |
| 20260901174203 | 89 | 0 | 6.0 | 11.0 | 0.00 | 0.00 | 0.00 | 66 | 1009.5 |
| 20260901174103 | 89 | 37 | 5.0 | 11.0 | 0.00 | 0.00 | 0.00 | 67 | 1009.4 |
| 20260901174007 | 89 | 16 | 5.0 | 11.0 | 0.00 | 0.00 | 0.00 | 67 | 1009.6 |
| 20260901173903 | 89 | 0 | 5.0 | 11.0 | 0.00 | 0.00 | 0.00 | 67 | 1009.7 |
| 20260901173802 | 89 | 4 | 6.0 | 11.0 | 0.00 | 0.00 | 0.00 | 67 | 1009.5 |
| 20260901173704 | 89 | 329 | 7.0 | 11.0 | 0.00 | 0.00 | 0.00 | 67 | 1009.6 |
| 20260901173603 | 89 | 316 | 8.0 | 11.0 | 0.00 | 0.00 | 0.00 | 67 | 1009.6 |
| 20260901173503 | 89 | 355 | 7.0 | 11.0 | 0.00 | 0.00 | 0.00 | 68 | 1009.7 |
| 20260901173403 | 89 | 18 | 6.0 | 11.0 | 0.00 | 0.00 | 0.00 | 68 | 1009.7 |
| 20260901173303 | 89 | 0 | 6.0 | 11.0 | 0.00 | 0.00 | 0.00 | 68 | 1009.7 |
| 20260901173202 | 89 | 343 | 6.0 | 11.0 | 0.00 | 0.00 | 0.00 | 68 | 1009.7 |
| 20260901173102 | 89 | 344 | 5.0 | 11.0 | 0.00 | 0.00 | 0.00 | 68 | 1009.7 |
| 20260901173002 | 89 | 7 | 5.0 | 11.0 | 0.00 | 0.00 | 0.00 | 68 | 1009.7 |
| 20260901172903 | 88 | 4 | 5.0 | 11.0 | 0.00 | 0.00 | 0.00 | 69 | 1009.8 |
| 20260901172804 | 88 | 358 | 6.0 | 11.0 | 0.00 | 0.00 | 0.00 | 69 | 1009.7 |
| 20260901172702 | 88 | 66 | 6.0 | 11.0 | 0.00 | 0.00 | 0.00 | 69 | 1009.8 |
| 20260901172602 | 88 | 353 | 8.0 | 11.0 | 0.00 | 0.00 | 0.00 | 69 | 1009.8 |
| 20260901172505 | 88 | 0 | 7.0 | 11.0 | 0.00 | 0.00 | 0.00 | 69 | 1009.8 |
| 20260901172403 | 88 | 336 | 7.0 | 11.0 | 0.00 | 0.00 | 0.00 | 70 | 1009.8 |
| 20260901172304 | 88 | 0 | 7.0 | 11.0 | 0.00 | 0.00 | 0.00 | 70 | 1009.8 |
| 20260901172202 | 88 | 355 | 6.0 | 12.0 | 0.00 | 0.00 | 0.00 | 70 | 1009.8 |
| 20260901172101 | 88 | 314 | 6.0 | 12.0 | 0.00 | 0.00 | 0.00 | 71 | 1009.8 |
| 20260901172001 | 88 | 30 | 6.0 | 12.0 | 0.00 | 0.00 | 0.00 | 70 | 1009.9 |
| 20260901171859 | 88 | 341 | 5.0 | 12.0 | 0.00 | 0.00 | 0.00 | 71 | 1009.9 |
| 20260901171755 | 88 | 0 | 6.0 | 12.0 | 0.00 | 0.00 | 0.00 | 71 | 1009.9 |
| 20260901171654 | 88 | 0 | 6.0 | 12.0 | 0.00 | 0.00 | 0.00 | 71 | 1009.9 |
| 20260901171551 | 88 | 0 | 6.0 | 12.0 | 0.00 | 0.00 | 0.00 | 71 | 1010.0 |
| 20260901171448 | 88 | 0 | 8.0 | 12.0 | 0.00 | 0.00 | 0.00 | 71 | 1010.0 |
| 20260901171341 | 88 | 3 | 7.0 | 12.0 | 0.00 | 0.00 | 0.00 | 71 | 1010.1 |
| 20260901171238 | 88 | 353 | 5.0 | 10.0 | 0.00 | 0.00 | 0.00 | 70 | 1010.1 |
| 20260901171133 | 87 | 330 | 5.0 | 10.0 | 0.00 | 0.00 | 0.00 | 70 | 1010.0 |
| 20260901171032 | 87 | 0 | 5.0 | 10.0 | 0.00 | 0.00 | 0.00 | 71 | 1010.1 |
| 20260901170931 | 88 | 357 | 6.0 | 10.0 | 0.00 | 0.00 | 0.00 | 71 | 1010.2 |
| 20260901170830 | 88 | 14 | 6.0 | 12.0 | 0.00 | 0.00 | 0.00 | 71 | 1010.1 |
| 20260901170731 | 88 | 11 | 6.0 | 12.0 | 0.00 | 0.00 | 0.00 | 71 | 1010.1 |
| 20260901170633 | 88 | 348 | 7.0 | 12.0 | 0.00 | 0.00 | 0.00 | 71 | 1010.2 |
| 20260901170532 | 88 | 350 | 6.0 | 12.0 | 0.00 | 0.00 | 0.00 | 71 | 1010.2 |
| 20260901170432 | 88 | 357 | 5.0 | 12.0 | 0.00 | 0.00 | 0.00 | 71 | 1010.2 |
| 20260901170332 | 88 | 20 | 6.0 | 12.0 | 0.00 | 0.00 | 0.00 | 71 | 1010.2 |
| 20260901170231 | 88 | 32 | 7.0 | 12.0 | 0.00 | 0.00 | 0.00 | 71 | 1010.3 |
| 20260901170131 | 88 | 341 | 8.0 | 12.0 | 0.00 | 0.00 | 0.00 | 70 | 1010.2 |
| 20260901170032 | 88 | 334 | 8.0 | 12.0 | 0.00 | 0.00 | 0.00 | 70 | 1010.1 |
| 20260901165932 | 88 | 340 | 7.0 | 12.0 | 0.00 | 0.00 | 0.00 | 70 | 1010.2 |
| 20260901165830 | 88 | 21 | 7.0 | 11.0 | 0.00 | 0.00 | 0.00 | 70 | 1010.2 |
| 20260901165731 | 88 | 0 | 6.0 | 11.0 | 0.00 | 0.00 | 0.00 | 71 | 1010.2 |
| 20260901165632 | 88 | 14 | 6.0 | 11.0 | 0.00 | 0.00 | 0.00 | 71 | 1010.1 |
| 20260901165531 | 88 | 0 | 8.0 | 11.0 | 0.00 | 0.00 | 0.00 | 71 | 1010.2 |
| 20260901165430 | 88 | 331 | 8.0 | 11.0 | 0.00 | 0.00 | 0.00 | 71 | 1010.2 |
| 20260901165332 | 87 | 303 | 8.0 | 11.0 | 0.00 | 0.00 | 0.00 | 70 | 1010.2 |
| 20260901165232 | 88 | 338 | 8.0 | 11.0 | 0.00 | 0.00 | 0.00 | 70 | 1010.2 |
| 20260901165131 | 87 | 4 | 8.0 | 11.0 | 0.00 | 0.00 | 0.00 | 71 | 1010.2 |
| 20260901165031 | 88 | 329 | 7.0 | 11.0 | 0.00 | 0.00 | 0.00 | 71 | 1010.2 |
| 20260901164932 | 88 | 0 | 6.0 | 11.0 | 0.00 | 0.00 | 0.00 | 72 | 1010.2 |
| 20260901164831 | 88 | 13 | 8.0 | 11.0 | 0.00 | 0.00 | 0.00 | 72 | 1010.2 |
| 20260901164730 | 88 | 8 | 8.0 | 11.0 | 0.00 | 0.00 | 0.00 | 72 | 1010.3 |
| 20260901164632 | 87 | 0 | 6.0 | 10.0 | 0.00 | 0.00 | 0.00 | 72 | 1010.2 |
| 20260901164532 | 87 | 333 | 4.0 | 10.0 | 0.00 | 0.00 | 0.00 | 72 | 1010.1 |
| 20260901164431 | 87 | 358 | 5.0 | 10.0 | 0.00 | 0.00 | 0.00 | 72 | 1010.2 |
| 20260901164331 | 87 | 340 | 7.0 | 10.0 | 0.00 | 0.00 | 0.00 | 72 | 1010.2 |
| 20260901164231 | 87 | 331 | 7.0 | 10.0 | 0.00 | 0.00 | 0.00 | 72 | 1010.1 |
| 20260901164132 | 87 | 345 | 5.0 | 10.0 | 0.00 | 0.00 | 0.00 | 72 | 1010.2 |
| 20260901164031 | 87 | 333 | 5.0 | 10.0 | 0.00 | 0.00 | 0.00 | 72 | 1010.1 |
| 20260901163931 | 87 | 0 | 7.0 | 10.0 | 0.00 | 0.00 | 0.00 | 72 | 1010.2 |
| 20260901163833 | 87 | 351 | 8.0 | 10.0 | 0.00 | 0.00 | 0.00 | 72 | 1010.1 |
| 20260901163731 | 88 | 338 | 6.0 | 10.0 | 0.00 | 0.00 | 0.00 | 73 | 1010.1 |
| 20260901163632 | 87 | 350 | 5.0 | 10.0 | 0.00 | 0.00 | 0.00 | 73 | 1010.2 |
| 20260901163533 | 87 | 25 | 6.0 | 10.0 | 0.00 | 0.00 | 0.00 | 74 | 1010.1 |
| 20260901163429 | 87 | 340 | 6.0 | 10.0 | 0.00 | 0.00 | 0.00 | 74 | 1010.1 |
| 20260901163327 | 87 | 314 | 4.0 | 10.0 | 0.00 | 0.00 | 0.00 | 74 | 1010.2 |
| 20260901163228 | 87 | 327 | 4.0 | 10.0 | 0.00 | 0.00 | 0.00 | 74 | 1010.1 |
| 20260901163128 | 87 | 334 | 5.0 | 10.0 | 0.00 | 0.00 | 0.00 | 74 | 1010.1 |
| 20260901163028 | 87 | 299 | 6.0 | 10.0 | 0.00 | 0.00 | 0.00 | 74 | 1010.2 |
| 20260901162928 | 87 | 310 | 5.0 | 10.0 | 0.00 | 0.00 | 0.00 | 74 | 1010.1 |
| 20260901162827 | 87 | 305 | 6.0 | 10.0 | 0.00 | 0.00 | 0.00 | 74 | 1010.2 |
| 20260901162728 | 87 | 348 | 7.0 | 10.0 | 0.00 | 0.00 | 0.00 | 75 | 1010.1 |
| 20260901162627 | 87 | 354 | 6.0 | 10.0 | 0.00 | 0.00 | 0.00 | 75 | 1010.1 |
| 20260901162526 | 87 | 300 | 6.0 | 10.0 | 0.00 | 0.00 | 0.00 | 75 | 1010.2 |
| 20260901162428 | 87 | 282 | 7.0 | 10.0 | 0.00 | 0.00 | 0.00 | 75 | 1010.2 |
| 20260901162327 | 87 | 313 | 6.0 | 10.0 | 0.00 | 0.00 | 0.00 | 75 | 1010.2 |
| 20260901162228 | 87 | 348 | 5.0 | 10.0 | 0.00 | 0.00 | 0.00 | 75 | 1010.2 |
| 20260901162128 | 87 | 313 | 5.0 | 10.0 | 0.00 | 0.00 | 0.00 | 75 | 1010.2 |
| 20260901162027 | 86 | 340 | 7.0 | 10.0 | 0.00 | 0.00 | 0.00 | 75 | 1010.2 |
| 20260901161927 | 86 | 307 | 7.0 | 10.0 | 0.00 | 0.00 | 0.00 | 75 | 1010.2 |
| 20260901161827 | 87 | 312 | 6.0 | 10.0 | 0.00 | 0.00 | 0.00 | 76 | 1010.2 |
| 20260901161727 | 86 | 293 | 6.0 | 10.0 | 0.00 | 0.00 | 0.00 | 76 | 1010.2 |
| 20260901161627 | 86 | 295 | 6.0 | 10.0 | 0.00 | 0.00 | 0.00 | 75 | 1010.1 |
| 20260901161528 | 86 | 324 | 6.0 | 10.0 | 0.00 | 0.00 | 0.00 | 75 | 1010.2 |
| 20260901161426 | 87 | 321 | 4.0 | 7.0 | 0.00 | 0.00 | 0.00 | 76 | 1010.2 |
| 20260901161326 | 86 | 296 | 5.0 | 7.0 | 0.00 | 0.00 | 0.00 | 75 | 1010.2 |
| 20260901161227 | 87 | 309 | 6.0 | 7.0 | 0.00 | 0.00 | 0.00 | 75 | 1010.2 |
| 20260901161126 | 87 | 305 | 4.0 | 9.0 | 0.00 | 0.00 | 0.00 | 75 | 1010.2 |
| 20260901161028 | 87 | 348 | 4.0 | 9.0 | 0.00 | 0.00 | 0.00 | 75 | 1010.2 |
| 20260901160928 | 86 | 350 | 4.0 | 9.0 | 0.00 | 0.00 | 0.00 | 75 | 1010.2 |
| 20260901160827 | 86 | 331 | 5.0 | 9.0 | 0.00 | 0.00 | 0.00 | 76 | 1010.2 |
| 20260901160726 | 86 | 348 | 5.0 | 9.0 | 0.00 | 0.00 | 0.00 | 76 | 1010.2 |
| 20260901160625 | 86 | 0 | 5.0 | 9.0 | 0.00 | 0.00 | 0.00 | 76 | 1010.3 |
| 20260901160526 | 86 | 353 | 6.0 | 9.0 | 0.00 | 0.00 | 0.00 | 76 | 1010.2 |
| 20260901160426 | 86 | 331 | 6.0 | 9.0 | 0.00 | 0.00 | 0.00 | 76 | 1010.2 |
| 20260901160325 | 86 | 333 | 6.0 | 9.0 | 0.00 | 0.00 | 0.00 | 76 | 1010.2 |
| 20260901160227 | 86 | 344 | 5.0 | 9.0 | 0.00 | 0.00 | 0.00 | 76 | 1010.2 |
| 20260901160127 | 86 | 314 | 5.0 | 9.0 | 0.00 | 0.00 | 0.00 | 76 | 1010.1 |
| 20260901160028 | 86 | 303 | 5.0 | 9.0 | 0.00 | 0.00 | 0.00 | 76 | 1010.1 |
| 20260901155926 | 86 | 327 | 5.0 | 9.0 | 0.00 | 0.00 | 0.00 | 77 | 1010.1 |
| 20260901155827 | 86 | 298 | 6.0 | 9.0 | 0.00 | 0.00 | 0.00 | 76 | 1010.1 |
| 20260901155726 | 86 | 334 | 6.0 | 9.0 | 0.00 | 0.00 | 0.00 | 77 | 1010.1 |
| 20260901155628 | 86 | 317 | 6.0 | 9.0 | 0.00 | 0.00 | 0.00 | 77 | 1010.1 |
| 20260901155527 | 86 | 355 | 5.0 | 9.0 | 0.00 | 0.00 | 0.00 | 77 | 1010.1 |
| 20260901155427 | 86 | 330 | 5.0 | 9.0 | 0.00 | 0.00 | 0.00 | 77 | 1010.1 |
| 20260901155327 | 86 | 343 | 4.0 | 9.0 | 0.00 | 0.00 | 0.00 | 77 | 1010.1 |
| 20260901155227 | 86 | 336 | 4.0 | 9.0 | 0.00 | 0.00 | 0.00 | 78 | 1010.0 |
| 20260901155126 | 85 | 347 | 4.0 | 9.0 | 0.00 | 0.00 | 0.00 | 78 | 1010.0 |
| 20260901155025 | 85 | 334 | 5.0 | 9.0 | 0.00 | 0.00 | 0.00 | 78 | 1010.0 |
| 20260901154926 | 85 | 321 | 6.0 | 9.0 | 0.00 | 0.00 | 0.00 | 79 | 1010.1 |
| 20260901154827 | 85 | 336 | 5.0 | 9.0 | 0.00 | 0.00 | 0.00 | 79 | 1010.1 |
| 20260901154725 | 85 | 305 | 4.0 | 6.0 | 0.00 | 0.00 | 0.00 | 79 | 1010.0 |
| 20260901154626 | 85 | 289 | 4.0 | 9.0 | 0.00 | 0.00 | 0.00 | 79 | 1010.0 |
| 20260901154525 | 85 | 281 | 4.0 | 9.0 | 0.00 | 0.00 | 0.00 | 79 | 1010.0 |
| 20260901154425 | 85 | 307 | 4.0 | 9.0 | 0.00 | 0.00 | 0.00 | 80 | 1010.0 |
| 20260901154326 | 85 | 293 | 4.0 | 9.0 | 0.00 | 0.00 | 0.00 | 80 | 1010.0 |
| 20260901154226 | 85 | 341 | 5.0 | 9.0 | 0.00 | 0.00 | 0.00 | 80 | 1010.0 |
| 20260901154126 | 85 | 319 | 5.0 | 9.0 | 0.00 | 0.00 | 0.00 | 80 | 1010.0 |
| 20260901154027 | 85 | 327 | 5.0 | 9.0 | 0.00 | 0.00 | 0.00 | 80 | 1010.1 |
| 20260901153926 | 85 | 358 | 4.0 | 9.0 | 0.00 | 0.00 | 0.00 | 80 | 1010.2 |
| 20260901153825 | 85 | 313 | 4.0 | 9.0 | 0.00 | 0.00 | 0.00 | 80 | 1010.2 |
| 20260901153725 | 84 | 279 | 4.0 | 9.0 | 0.00 | 0.00 | 0.00 | 80 | 1010.2 |
| 20260901153627 | 84 | 300 | 3.0 | 9.0 | 0.00 | 0.00 | 0.00 | 80 | 1010.2 |
| 20260901153526 | 84 | 295 | 4.0 | 9.0 | 0.00 | 0.00 | 0.00 | 80 | 1010.1 |
| 20260901153427 | 84 | 295 | 4.0 | 10.0 | 0.00 | 0.00 | 0.00 | 80 | 1010.2 |
| 20260901153327 | 84 | 303 | 5.0 | 10.0 | 0.00 | 0.00 | 0.00 | 82 | 1010.3 |
| 20260901153226 | 84 | 305 | 4.0 | 10.0 | 0.00 | 0.00 | 0.00 | 82 | 1010.2 |
| 20260901153126 | 84 | 309 | 5.0 | 10.0 | 0.00 | 0.00 | 0.00 | 82 | 1010.2 |
| 20260901153025 | 84 | 312 | 6.0 | 10.0 | 0.00 | 0.00 | 0.00 | 82 | 1010.2 |
| 20260901152927 | 83 | 276 | 4.0 | 10.0 | 0.00 | 0.00 | 0.00 | 83 | 1010.2 |
| 20260901152827 | 83 | 298 | 3.0 | 10.0 | 0.00 | 0.00 | 0.00 | 82 | 1010.2 |
| 20260901152725 | 83 | 305 | 3.0 | 10.0 | 0.00 | 0.00 | 0.00 | 82 | 1010.1 |
| 20260901152625 | 83 | 309 | 6.0 | 10.0 | 0.00 | 0.00 | 0.00 | 83 | 1010.1 |
| 20260901152526 | 83 | 348 | 4.0 | 10.0 | 0.00 | 0.00 | 0.00 | 83 | 1010.3 |
| 20260901152426 | 83 | 341 | 3.0 | 5.0 | 0.00 | 0.00 | 0.00 | 83 | 1010.2 |
| 20260901152325 | 83 | 317 | 4.0 | 5.0 | 0.00 | 0.00 | 0.00 | 83 | 1010.2 |
| 20260901152227 | 83 | 351 | 4.0 | 6.0 | 0.00 | 0.00 | 0.00 | 83 | 1010.2 |
| 20260901152126 | 83 | 333 | 4.0 | 6.0 | 0.00 | 0.00 | 0.00 | 84 | 1010.2 |
| 20260901152027 | 83 | 298 | 3.0 | 6.0 | 0.00 | 0.00 | 0.00 | 84 | 1010.2 |
| 20260901151926 | 83 | 298 | 3.0 | 6.0 | 0.00 | 0.00 | 0.00 | 84 | 1010.1 |
| 20260901151826 | 83 | 288 | 4.0 | 6.0 | 0.00 | 0.00 | 0.00 | 84 | 1010.2 |
| 20260901151726 | 83 | 288 | 4.0 | 6.0 | 0.00 | 0.00 | 0.00 | 84 | 1010.1 |
| 20260901151627 | 83 | 288 | 4.0 | 6.0 | 0.00 | 0.00 | 0.00 | 84 | 1010.2 |
| 20260901151526 | 83 | 309 | 4.0 | 7.0 | 0.00 | 0.00 | 0.00 | 84 | 1010.1 |
| 20260901151424 | 83 | 336 | 5.0 | 7.0 | 0.00 | 0.00 | 0.00 | 84 | 1010.1 |
| 20260901151326 | 83 | 290 | 4.0 | 7.0 | 0.00 | 0.00 | 0.00 | 84 | 1010.1 |
| 20260901151226 | 83 | 276 | 4.0 | 7.0 | 0.00 | 0.00 | 0.00 | 84 | 1010.1 |
| 20260901151126 | 83 | 272 | 4.0 | 7.0 | 0.00 | 0.00 | 0.00 | 84 | 1010.1 |
| 20260901151026 | 83 | 283 | 5.0 | 7.0 | 0.00 | 0.00 | 0.00 | 84 | 1010.1 |
| 20260901150925 | 83 | 285 | 5.0 | 7.0 | 0.00 | 0.00 | 0.00 | 84 | 1010.1 |
| 20260901150827 | 83 | 282 | 5.0 | 7.0 | 0.00 | 0.00 | 0.00 | 84 | 1010.1 |
| 20260901150724 | 83 | 259 | 6.0 | 7.0 | 0.00 | 0.00 | 0.00 | 84 | 1010.2 |
| 20260901150626 | 83 | 286 | 5.0 | 7.0 | 0.00 | 0.00 | 0.00 | 84 | 1010.1 |
| 20260901150525 | 83 | 272 | 4.0 | 6.0 | 0.00 | 0.00 | 0.00 | 84 | 1010.1 |
| 20260901150426 | 82 | 289 | 3.0 | 6.0 | 0.00 | 0.00 | 0.00 | 84 | 1010.1 |
| 20260901150326 | 82 | 269 | 4.0 | 6.0 | 0.00 | 0.00 | 0.00 | 84 | 1010.2 |
| 20260901150225 | 83 | 276 | 4.0 | 6.0 | 0.00 | 0.00 | 0.00 | 84 | 1010.1 |
| 20260901150126 | 83 | 271 | 4.0 | 6.0 | 0.00 | 0.00 | 0.00 | 84 | 1010.1 |
| 20260901150025 | 82 | 285 | 5.0 | 6.0 | 0.00 | 0.00 | 0.00 | 84 | 1010.2 |
| 20260901145926 | 82 | 272 | 5.0 | 6.0 | 0.00 | 0.00 | 0.00 | 84 | 1010.3 |
| 20260901145824 | 82 | 274 | 4.0 | 6.0 | 0.00 | 0.00 | 0.00 | 84 | 1010.2 |
| 20260901145726 | 83 | 300 | 5.0 | 6.0 | 0.00 | 0.00 | 0.00 | 85 | 1010.3 |
| 20260901145624 | 83 | 264 | 4.0 | 6.0 | 0.00 | 0.00 | 0.00 | 84 | 1010.3 |
| 20260901145524 | 82 | 272 | 3.0 | 5.0 | 0.00 | 0.00 | 0.00 | 84 | 1010.3 |
| 20260901145426 | 83 | 290 | 4.0 | 5.0 | 0.00 | 0.00 | 0.00 | 84 | 1010.4 |
| 20260901145327 | 83 | 307 | 4.0 | 5.0 | 0.00 | 0.00 | 0.00 | 84 | 1010.4 |
| 20260901145225 | 83 | 312 | 2.0 | 4.0 | 0.00 | 0.00 | 0.00 | 84 | 1010.3 |
| 20260901145126 | 83 | 358 | 1.0 | 4.0 | 0.00 | 0.00 | 0.00 | 84 | 1010.4 |
| 20260901145025 | 83 | 0 | 2.0 | 4.0 | 0.00 | 0.00 | 0.00 | 85 | 1010.4 |
| 20260901144925 | 82 | 0 | 2.0 | 4.0 | 0.00 | 0.00 | 0.00 | 85 | 1010.5 |
| 20260901144824 | 82 | 331 | 2.0 | 4.0 | 0.00 | 0.00 | 0.00 | 85 | 1010.5 |
| 20260901144724 | 82 | 334 | 2.0 | 4.0 | 0.00 | 0.00 | 0.00 | 86 | 1010.4 |
| 20260901144625 | 82 | 333 | 2.0 | 4.0 | 0.00 | 0.00 | 0.00 | 86 | 1010.5 |
| 20260901144527 | 82 | 333 | 2.0 | 4.0 | 0.00 | 0.00 | 0.00 | 85 | 1010.4 |
| 20260901144425 | 82 | 333 | 2.0 | 4.0 | 0.00 | 0.00 | 0.00 | 85 | 1010.4 |
| 20260901144324 | 82 | 326 | 2.0 | 4.0 | 0.00 | 0.00 | 0.00 | 85 | 1010.4 |
| 20260901144225 | 82 | 324 | 3.0 | 4.0 | 0.00 | 0.00 | 0.00 | 85 | 1010.4 |
| 20260901144124 | 82 | 337 | 3.0 | 4.0 | 0.00 | 0.00 | 0.00 | 85 | 1010.3 |
| 20260901144024 | 82 | 293 | 3.0 | 4.0 | 0.00 | 0.00 | 0.00 | 85 | 1010.4 |
| 20260901143926 | 82 | 290 | 3.0 | 4.0 | 0.00 | 0.00 | 0.00 | 85 | 1010.4 |
| 20260901143824 | 82 | 292 | 3.0 | 4.0 | 0.00 | 0.00 | 0.00 | 85 | 1010.3 |
| 20260901143724 | 82 | 293 | 3.0 | 5.0 | 0.00 | 0.00 | 0.00 | 85 | 1010.3 |
| 20260901143623 | 82 | 281 | 3.0 | 5.0 | 0.00 | 0.00 | 0.00 | 85 | 1010.3 |
| 20260901143525 | 82 | 305 | 3.0 | 5.0 | 0.00 | 0.00 | 0.00 | 85 | 1010.3 |
| 20260901143425 | 82 | 340 | 2.0 | 5.0 | 0.00 | 0.00 | 0.00 | 85 | 1010.3 |
| 20260901143326 | 82 | 8 | 2.0 | 5.0 | 0.00 | 0.00 | 0.00 | 85 | 1010.3 |
| 20260901143224 | 82 | 8 | 2.0 | 5.0 | 0.00 | 0.00 | 0.00 | 85 | 1010.3 |
| 20260901143125 | 82 | 16 | 2.0 | 5.0 | 0.00 | 0.00 | 0.00 | 85 | 1010.3 |
| 20260901143027 | 82 | 0 | 2.0 | 5.0 | 0.00 | 0.00 | 0.00 | 86 | 1010.3 |
| 20260901142924 | 82 | 353 | 3.0 | 5.0 | 0.00 | 0.00 | 0.00 | 86 | 1010.3 |
| 20260901142825 | 82 | 350 | 3.0 | 4.0 | 0.00 | 0.00 | 0.00 | 86 | 1010.4 |
| 20260901142726 | 82 | 331 | 2.0 | 4.0 | 0.00 | 0.00 | 0.00 | 86 | 1010.4 |
| 20260901142625 | 82 | 323 | 2.0 | 4.0 | 0.00 | 0.00 | 0.00 | 86 | 1010.3 |
| 20260901142525 | 82 | 323 | 2.0 | 4.0 | 0.00 | 0.00 | 0.00 | 86 | 1010.3 |
| 20260901142426 | 82 | 323 | 2.0 | 4.0 | 0.00 | 0.00 | 0.00 | 86 | 1010.3 |
| 20260901142323 | 81 | 324 | 3.0 | 4.0 | 0.00 | 0.00 | 0.00 | 86 | 1010.3 |
| 20260901142224 | 82 | 344 | 4.0 | 4.0 | 0.00 | 0.00 | 0.00 | 86 | 1010.3 |
| 20260901142124 | 82 | 319 | 3.0 | 4.0 | 0.00 | 0.00 | 0.00 | 86 | 1010.3 |
| 20260901142025 | 82 | 357 | 3.0 | 4.0 | 0.00 | 0.00 | 0.00 | 86 | 1010.3 |
| 20260901141924 | 82 | 0 | 2.0 | 4.0 | 0.00 | 0.00 | 0.00 | 86 | 1010.3 |
| 20260901141823 | 82 | 0 | 1.0 | 4.0 | 0.00 | 0.00 | 0.00 | 86 | 1010.3 |
| 20260901141726 | 82 | 20 | 2.0 | 4.0 | 0.00 | 0.00 | 0.00 | 86 | 1010.3 |
| 20260901141623 | 82 | 20 | 2.0 | 4.0 | 0.00 | 0.00 | 0.00 | 86 | 1010.3 |
| 20260901141523 | 82 | 21 | 2.0 | 4.0 | 0.00 | 0.00 | 0.00 | 86 | 1010.3 |
| 20260901141424 | 82 | 21 | 1.0 | 4.0 | 0.00 | 0.00 | 0.00 | 86 | 1010.3 |
| 20260901141323 | 82 | 18 | 2.0 | 4.0 | 0.00 | 0.00 | 0.00 | 86 | 1010.3 |
| 20260901141223 | 82 | 16 | 3.0 | 4.0 | 0.00 | 0.00 | 0.00 | 86 | 1010.3 |
| 20260901141125 | 82 | 18 | 2.0 | 4.0 | 0.00 | 0.00 | 0.00 | 86 | 1010.3 |
| 20260901141024 | 82 | 0 | 2.0 | 4.0 | 0.00 | 0.00 | 0.00 | 86 | 1010.4 |
| 20260901140925 | 81 | 1 | 2.0 | 4.0 | 0.00 | 0.00 | 0.00 | 86 | 1010.4 |
| 20260901140825 | 81 | 0 | 2.0 | 4.0 | 0.00 | 0.00 | 0.00 | 86 | 1010.4 |
| 20260901140725 | 81 | 1 | 2.0 | 4.0 | 0.00 | 0.00 | 0.00 | 86 | 1010.4 |
| 20260901140623 | 81 | 3 | 2.0 | 4.0 | 0.00 | 0.00 | 0.00 | 86 | 1010.5 |
| 20260901140524 | 81 | 3 | 2.0 | 4.0 | 0.00 | 0.00 | 0.00 | 86 | 1010.5 |
| 20260901140424 | 81 | 4 | 2.0 | 4.0 | 0.00 | 0.00 | 0.00 | 86 | 1010.5 |
| 20260901140323 | 81 | 6 | 2.0 | 4.0 | 0.00 | 0.00 | 0.00 | 86 | 1010.5 |
| 20260901140225 | 81 | 8 | 3.0 | 4.0 | 0.00 | 0.00 | 0.00 | 86 | 1010.5 |
| 20260901140123 | 81 | 0 | 3.0 | 4.0 | 0.00 | 0.00 | 0.00 | 86 | 1010.5 |
| 20260901140025 | 81 | 0 | 2.0 | 4.0 | 0.00 | 0.00 | 0.00 | 86 | 1010.5 |
| 20260901135924 | 81 | 0 | 2.0 | 4.0 | 0.00 | 0.00 | 0.00 | 86 | 1010.5 |
| 20260901135824 | 81 | 0 | 2.0 | 4.0 | 0.00 | 0.00 | 0.00 | 86 | 1010.5 |
| 20260901135725 | 81 | 0 | 2.0 | 4.0 | 0.00 | 0.00 | 0.00 | 86 | 1010.5 |
| 20260901135624 | 81 | 0 | 2.0 | 5.0 | 0.00 | 0.00 | 0.00 | 86 | 1010.5 |
| 20260901135524 | 81 | 0 | 2.0 | 5.0 | 0.00 | 0.00 | 0.00 | 86 | 1010.5 |
| 20260901135417 | 81 | 0 | 3.0 | 5.0 | 0.00 | 0.00 | 0.00 | 86 | 1010.4 |
| 20260901135311 | 81 | 0 | 3.0 | 5.0 | 0.00 | 0.00 | 0.00 | 86 | 1010.5 |
| 20260901135204 | 81 | 0 | 3.0 | 5.0 | 0.00 | 0.00 | 0.00 | 86 | 1010.4 |
| 20260901135103 | 81 | 0 | 3.0 | 5.0 | 0.00 | 0.00 | 0.00 | 86 | 1010.5 |
| 20260901135002 | 81 | 0 | 2.0 | 5.0 | 0.00 | 0.00 | 0.00 | 87 | 1010.5 |
| 20260901134903 | 81 | 0 | 2.0 | 5.0 | 0.00 | 0.00 | 0.00 | 87 | 1010.5 |
| 20260901134803 | 81 | 0 | 3.0 | 5.0 | 0.00 | 0.00 | 0.00 | 87 | 1010.5 |
| 20260901134702 | 81 | 0 | 3.0 | 5.0 | 0.00 | 0.00 | 0.00 | 87 | 1010.5 |
| 20260901134604 | 81 | 0 | 2.0 | 5.0 | 0.00 | 0.00 | 0.00 | 87 | 1010.5 |
| 20260901134505 | 81 | 355 | 2.0 | 5.0 | 0.00 | 0.00 | 0.00 | 87 | 1010.5 |
| 20260901134402 | 81 | 355 | 3.0 | 5.0 | 0.00 | 0.00 | 0.00 | 87 | 1010.5 |
| 20260901134303 | 81 | 357 | 3.0 | 5.0 | 0.00 | 0.00 | 0.00 | 87 | 1010.5 |
| 20260901134203 | 81 | 357 | 3.0 | 5.0 | 0.00 | 0.00 | 0.00 | 87 | 1010.4 |
| 20260901134103 | 81 | 0 | 3.0 | 6.0 | 0.00 | 0.00 | 0.00 | 88 | 1010.4 |
| 20260901134002 | 80 | 353 | 3.0 | 6.0 | 0.00 | 0.00 | 0.00 | 87 | 1010.5 |
| 20260901133902 | 80 | 347 | 3.0 | 6.0 | 0.00 | 0.00 | 0.00 | 87 | 1010.5 |
| 20260901133804 | 80 | 343 | 4.0 | 6.0 | 0.00 | 0.00 | 0.00 | 88 | 1010.4 |
| 20260901133703 | 80 | 344 | 4.0 | 6.0 | 0.00 | 0.00 | 0.00 | 88 | 1010.4 |
| 20260901133603 | 80 | 343 | 4.0 | 6.0 | 0.00 | 0.00 | 0.00 | 88 | 1010.4 |
| 20260901133505 | 80 | 353 | 4.0 | 6.0 | 0.00 | 0.00 | 0.00 | 88 | 1010.4 |
| 20260901133404 | 80 | 321 | 4.0 | 6.0 | 0.00 | 0.00 | 0.00 | 88 | 1010.3 |
| 20260901133304 | 80 | 321 | 4.0 | 6.0 | 0.00 | 0.00 | 0.00 | 88 | 1010.3 |
| 20260901133203 | 80 | 314 | 4.0 | 6.0 | 0.00 | 0.00 | 0.00 | 88 | 1010.3 |
| 20260901133103 | 80 | 320 | 3.0 | 5.0 | 0.00 | 0.00 | 0.00 | 88 | 1010.3 |
| 20260901133004 | 80 | 334 | 3.0 | 4.0 | 0.00 | 0.00 | 0.00 | 88 | 1010.3 |
| 20260901132903 | 80 | 329 | 3.0 | 4.0 | 0.00 | 0.00 | 0.00 | 88 | 1010.2 |
| 20260901132802 | 80 | 338 | 3.0 | 4.0 | 0.00 | 0.00 | 0.00 | 88 | 1010.3 |
| 20260901132701 | 80 | 337 | 3.0 | 4.0 | 0.00 | 0.00 | 0.00 | 89 | 1010.3 |
| 20260901132603 | 80 | 331 | 2.0 | 4.0 | 0.00 | 0.00 | 0.00 | 89 | 1010.2 |
| 20260901132503 | 80 | 321 | 2.0 | 4.0 | 0.00 | 0.00 | 0.00 | 89 | 1010.2 |
| 20260901132404 | 80 | 338 | 2.0 | 4.0 | 0.00 | 0.00 | 0.00 | 89 | 1010.2 |
| 20260901132307 | 80 | 340 | 2.0 | 4.0 | 0.00 | 0.00 | 0.00 | 89 | 1010.3 |
| 20260901132201 | 80 | 341 | 2.0 | 4.0 | 0.00 | 0.00 | 0.00 | 89 | 1010.3 |
| 20260901132104 | 80 | 341 | 2.0 | 4.0 | 0.00 | 0.00 | 0.00 | 89 | 1010.2 |
| 20260901132002 | 80 | 345 | 2.0 | 4.0 | 0.00 | 0.00 | 0.00 | 89 | 1010.2 |
| 20260901131903 | 80 | 354 | 3.0 | 4.0 | 0.00 | 0.00 | 0.00 | 89 | 1010.2 |
| 20260901131804 | 80 | 0 | 3.0 | 4.0 | 0.00 | 0.00 | 0.00 | 89 | 1010.2 |
| 20260901131702 | 80 | 0 | 2.0 | 4.0 | 0.00 | 0.00 | 0.00 | 89 | 1010.3 |
| 20260901131602 | 80 | 0 | 2.0 | 4.0 | 0.00 | 0.00 | 0.00 | 90 | 1010.2 |
| 20260901131505 | 80 | 0 | 2.0 | 4.0 | 0.00 | 0.00 | 0.00 | 90 | 1010.2 |
| 20260901131402 | 80 | 0 | 2.0 | 4.0 | 0.00 | 0.00 | 0.00 | 90 | 1010.2 |
| 20260901131303 | 80 | 0 | 3.0 | 4.0 | 0.00 | 0.00 | 0.00 | 90 | 1010.2 |
| 20260901131204 | 80 | 0 | 3.0 | 4.0 | 0.00 | 0.00 | 0.00 | 90 | 1010.3 |
| 20260901131102 | 80 | 0 | 2.0 | 3.0 | 0.00 | 0.00 | 0.00 | 90 | 1010.2 |
| 20260901131004 | 80 | 0 | 2.0 | 3.0 | 0.00 | 0.00 | 0.00 | 90 | 1010.2 |
| 20260901130904 | 80 | 0 | 2.0 | 3.0 | 0.00 | 0.00 | 0.00 | 90 | 1010.2 |
| 20260901130803 | 79 | 0 | 2.0 | 3.0 | 0.00 | 0.00 | 0.00 | 90 | 1010.2 |
| 20260901130704 | 79 | 0 | 2.0 | 2.0 | 0.00 | 0.00 | 0.00 | 90 | 1010.3 |
| 20260901130603 | 79 | 0 | 1.0 | 2.0 | 0.00 | 0.00 | 0.00 | 90 | 1010.2 |
| 20260901130502 | 79 | 0 | 1.0 | 2.0 | 0.00 | 0.00 | 0.00 | 91 | 1010.1 |
| 20260901130403 | 79 | 0 | 1.0 | 2.0 | 0.00 | 0.00 | 0.00 | 91 | 1010.1 |
| 20260901130304 | 79 | 0 | 1.0 | 3.0 | 0.00 | 0.00 | 0.00 | 91 | 1010.1 |
| 20260901130204 | 79 | 0 | 1.0 | 3.0 | 0.00 | 0.00 | 0.00 | 91 | 1010.1 |
| 20260901130005 | 79 | 0 | 2.0 | 3.0 | 0.00 | 0.00 | 0.00 | 91 | 1010.0 |
| 20260901125903 | 79 | 0 | 2.0 | 3.0 | 0.00 | 0.00 | 0.00 | 91 | 1010.1 |
| 20260901125803 | 79 | 0 | 1.0 | 4.0 | 0.00 | 0.00 | 0.00 | 91 | 1010.1 |
| 20260901125705 | 79 | 0 | 1.0 | 4.0 | 0.00 | 0.00 | 0.00 | 91 | 1010.0 |
| 20260901125604 | 79 | 0 | 1.0 | 4.0 | 0.00 | 0.00 | 0.00 | 91 | 1010.0 |
| 20260901125504 | 79 | 0 | 2.0 | 4.0 | 0.00 | 0.00 | 0.00 | 91 | 1010.0 |
| 20260901125402 | 79 | 0 | 2.0 | 4.0 | 0.00 | 0.00 | 0.00 | 91 | 1010.1 |
| 20260901125307 | 79 | 0 | 2.0 | 4.0 | 0.00 | 0.00 | 0.00 | 91 | 1009.9 |
| 20260901125205 | 79 | 0 | 2.0 | 4.0 | 0.00 | 0.00 | 0.00 | 91 | 1009.9 |
| 20260901125102 | 79 | 0 | 2.0 | 4.0 | 0.00 | 0.00 | 0.00 | 91 | 1009.9 |
| 20260901125004 | 79 | 358 | 2.0 | 4.0 | 0.00 | 0.00 | 0.00 | 91 | 1009.9 |
| 20260901124902 | 79 | 0 | 2.0 | 4.0 | 0.00 | 0.00 | 0.00 | 91 | 1009.8 |
| 20260901124802 | 79 | 0 | 2.0 | 5.0 | 0.00 | 0.00 | 0.00 | 91 | 1009.9 |
| 20260901124704 | 79 | 0 | 2.0 | 5.0 | 0.00 | 0.00 | 0.00 | 91 | 1009.9 |
| 20260901124603 | 79 | 0 | 2.0 | 5.0 | 0.00 | 0.00 | 0.00 | 91 | 1009.9 |
| 20260901124503 | 78 | 0 | 3.0 | 5.0 | 0.00 | 0.00 | 0.00 | 91 | 1009.9 |
| 20260901124402 | 78 | 0 | 3.0 | 5.0 | 0.00 | 0.00 | 0.00 | 91 | 1009.9 |
| 20260901124303 | 78 | 0 | 2.0 | 5.0 | 0.00 | 0.00 | 0.00 | 91 | 1009.9 |
| 20260901124202 | 78 | 0 | 2.0 | 5.0 | 0.00 | 0.00 | 0.00 | 91 | 1009.9 |
| 20260901124102 | 78 | 0 | 2.0 | 5.0 | 0.00 | 0.00 | 0.00 | 91 | 1009.8 |
| 20260901124004 | 78 | 353 | 4.0 | 5.0 | 0.00 | 0.00 | 0.00 | 91 | 1009.9 |
| 20260901123902 | 78 | 0 | 4.0 | 5.0 | 0.00 | 0.00 | 0.00 | 91 | 1009.9 |
| 20260901123803 | 78 | 357 | 3.0 | 5.0 | 0.00 | 0.00 | 0.00 | 91 | 1009.8 |
| 20260901123703 | 78 | 355 | 3.0 | 5.0 | 0.00 | 0.00 | 0.00 | 91 | 1009.8 |
| 20260901123605 | 78 | 353 | 3.0 | 3.0 | 0.00 | 0.00 | 0.00 | 91 | 1009.8 |
| 20260901123503 | 78 | 354 | 3.0 | 3.0 | 0.00 | 0.00 | 0.00 | 91 | 1009.8 |
| 20260901123403 | 78 | 355 | 2.0 | 3.0 | 0.00 | 0.00 | 0.00 | 91 | 1009.8 |
| 20260901123303 | 78 | 357 | 2.0 | 3.0 | 0.00 | 0.00 | 0.00 | 91 | 1009.8 |
| 20260901123202 | 78 | 357 | 2.0 | 3.0 | 0.00 | 0.00 | 0.00 | 91 | 1009.8 |
| 20260901123103 | 78 | 358 | 1.0 | 3.0 | 0.00 | 0.00 | 0.00 | 91 | 1009.8 |
| 20260901123004 | 78 | 357 | 1.0 | 2.0 | 0.00 | 0.00 | 0.00 | 91 | 1009.8 |
| 20260901122902 | 78 | 357 | 1.0 | 2.0 | 0.00 | 0.00 | 0.00 | 91 | 1009.7 |
| 20260901122803 | 78 | 350 | 0.0 | 2.0 | 0.00 | 0.00 | 0.00 | 91 | 1009.7 |
| 20260901122703 | 78 | 350 | 0.0 | 2.0 | 0.00 | 0.00 | 0.00 | 91 | 1009.7 |
| 20260901122603 | 78 | 350 | 1.0 | 2.0 | 0.00 | 0.00 | 0.00 | 91 | 1009.8 |
| 20260901122504 | 78 | 350 | 1.0 | 2.0 | 0.00 | 0.00 | 0.00 | 91 | 1009.7 |
| 20260901122402 | 78 | 350 | 1.0 | 2.0 | 0.00 | 0.00 | 0.00 | 91 | 1009.7 |
| 20260901122306 | 78 | 350 | 1.0 | 2.0 | 0.00 | 0.00 | 0.00 | 91 | 1009.7 |
| 20260901122204 | 78 | 350 | 0.0 | 2.0 | 0.00 | 0.00 | 0.00 | 91 | 1009.6 |
| 20260901122104 | 78 | 350 | 0.0 | 2.0 | 0.00 | 0.00 | 0.00 | 91 | 1009.7 |
| 20260901122004 | 78 | 350 | 0.0 | 2.0 | 0.00 | 0.00 | 0.00 | 91 | 1009.6 |
| 20260901121903 | 78 | 350 | 1.0 | 2.0 | 0.00 | 0.00 | 0.00 | 91 | 1009.6 |
| 20260901121804 | 78 | 350 | 0.0 | 3.0 | 0.00 | 0.00 | 0.00 | 91 | 1009.6 |
| 20260901121704 | 78 | 350 | 0.0 | 3.0 | 0.00 | 0.00 | 0.00 | 91 | 1009.6 |
| 20260901121604 | 78 | 350 | 1.0 | 3.0 | 0.00 | 0.00 | 0.00 | 91 | 1009.6 |
| 20260901121503 | 78 | 350 | 1.0 | 3.0 | 0.00 | 0.00 | 0.00 | 91 | 1009.4 |
| 20260901121403 | 78 | 350 | 1.0 | 3.0 | 0.00 | 0.00 | 0.00 | 91 | 1009.5 |
| 20260901121302 | 78 | 350 | 1.0 | 3.0 | 0.00 | 0.00 | 0.00 | 91 | 1009.4 |
| 20260901121203 | 78 | 350 | 2.0 | 3.0 | 0.00 | 0.00 | 0.00 | 91 | 1009.5 |
| 20260901121103 | 78 | 350 | 2.0 | 3.0 | 0.00 | 0.00 | 0.00 | 91 | 1009.4 |
| 20260901121002 | 78 | 350 | 2.0 | 3.0 | 0.00 | 0.00 | 0.00 | 91 | 1009.4 |
| 20260901120904 | 78 | 350 | 2.0 | 3.0 | 0.00 | 0.00 | 0.00 | 91 | 1009.4 |
| 20260901120802 | 78 | 350 | 1.0 | 2.0 | 0.00 | 0.00 | 0.00 | 91 | 1009.3 |
| 20260901120704 | 78 | 350 | 2.0 | 2.0 | 0.00 | 0.00 | 0.00 | 91 | 1009.4 |
| 20260901120603 | 78 | 350 | 2.0 | 2.0 | 0.00 | 0.00 | 0.00 | 91 | 1009.4 |
| 20260901120505 | 78 | 350 | 2.0 | 2.0 | 0.00 | 0.00 | 0.00 | 91 | 1009.4 |
| 20260901120403 | 78 | 350 | 1.0 | 2.0 | 0.00 | 0.00 | 0.00 | 91 | 1009.4 |
| 20260901120302 | 78 | 350 | 1.0 | 2.0 | 0.00 | 0.00 | 0.00 | 91 | 1009.3 |
| 20260901120203 | 78 | 350 | 1.0 | 2.0 | 0.00 | 0.00 | 0.00 | 91 | 1009.3 |
| 20260901120005 | 78 | 350 | 1.0 | 2.0 | 0.00 | 0.00 | 0.00 | 91 | 1009.3 |
| 20260901115902 | 78 | 350 | 0.0 | 0.0 | 0.00 | 0.00 | 0.00 | 91 | 1009.3 |
| 20260901115803 | 78 | 350 | 0.0 | 0.0 | 0.00 | 0.00 | 0.00 | 91 | 1009.3 |
| 20260901115703 | 78 | 350 | 0.0 | 0.0 | 0.00 | 0.00 | 0.00 | 91 | 1009.3 |
| 20260901115602 | 78 | 350 | 0.0 | 0.0 | 0.00 | 0.00 | 0.00 | 91 | 1009.3 |
| 20260901115504 | 78 | 345 | 0.0 | 0.0 | 0.00 | 0.00 | 0.00 | 91 | 1009.3 |
| 20260901115404 | 78 | 345 | 0.0 | 1.0 | 0.00 | 0.00 | 0.00 | 91 | 1009.3 |
| 20260901115257 | 78 | 345 | 0.0 | 2.0 | 0.00 | 0.00 | 0.00 | 91 | 1009.3 |
| 20260901115150 | 78 | 345 | 0.0 | 3.0 | 0.00 | 0.00 | 0.00 | 91 | 1009.2 |
| 20260901115049 | 78 | 345 | 0.0 | 3.0 | 0.00 | 0.00 | 0.00 | 91 | 1009.1 |
| 20260901114948 | 78 | 345 | 0.0 | 3.0 | 0.00 | 0.00 | 0.00 | 91 | 1009.2 |
| 20260901114846 | 78 | 345 | 0.0 | 3.0 | 0.00 | 0.00 | 0.00 | 91 | 1009.2 |
| 20260901114746 | 78 | 345 | 0.0 | 3.0 | 0.00 | 0.00 | 0.00 | 91 | 1009.2 |
| 20260901114643 | 78 | 345 | 0.0 | 3.0 | 0.00 | 0.00 | 0.00 | 91 | 1009.3 |
| 20260901114542 | 78 | 345 | 1.0 | 3.0 | 0.00 | 0.00 | 0.00 | 91 | 1009.2 |
| 20260901114440 | 78 | 345 | 1.0 | 3.0 | 0.00 | 0.00 | 0.00 | 91 | 1009.2 |
| 20260901114338 | 78 | 345 | 2.0 | 3.0 | 0.00 | 0.00 | 0.00 | 91 | 1009.2 |
| 20260901114237 | 78 | 343 | 2.0 | 3.0 | 0.00 | 0.00 | 0.00 | 91 | 1009.2 |
| 20260901114136 | 78 | 334 | 2.0 | 3.0 | 0.00 | 0.00 | 0.00 | 91 | 1009.1 |
| 20260901114032 | 78 | 334 | 2.0 | 3.0 | 0.00 | 0.00 | 0.00 | 91 | 1009.1 |
| 20260901113930 | 78 | 330 | 2.0 | 3.0 | 0.00 | 0.00 | 0.00 | 91 | 1009.1 |
| 20260901113832 | 78 | 286 | 2.0 | 3.0 | 0.00 | 0.00 | 0.00 | 91 | 1009.2 |
| 20260901113732 | 78 | 285 | 2.0 | 3.0 | 0.00 | 0.00 | 0.00 | 91 | 1009.2 |
| 20260901113630 | 78 | 233 | 0.0 | 2.0 | 0.00 | 0.00 | 0.00 | 91 | 1009.1 |
| 20260901113533 | 78 | 233 | 0.0 | 0.0 | 0.00 | 0.00 | 0.00 | 91 | 1009.2 |
| 20260901113432 | 78 | 231 | 0.0 | 0.0 | 0.00 | 0.00 | 0.00 | 91 | 1009.2 |
| 20260901113331 | 78 | 231 | 0.0 | 0.0 | 0.00 | 0.00 | 0.00 | 91 | 1009.3 |
| 20260901113233 | 78 | 231 | 0.0 | 0.0 | 0.00 | 0.00 | 0.00 | 91 | 1009.3 |
| 20260901113129 | 78 | 231 | 0.0 | 0.0 | 0.00 | 0.00 | 0.00 | 91 | 1009.3 |
| 20260901113030 | 78 | 231 | 0.0 | 0.0 | 0.00 | 0.00 | 0.00 | 91 | 1009.3 |
| 20260901112930 | 78 | 231 | 0.0 | 0.0 | 0.00 | 0.00 | 0.00 | 91 | 1009.3 |
| 20260901112824 | 78 | 230 | 0.0 | 0.0 | 0.00 | 0.00 | 0.00 | 91 | 1009.3 |
| 20260901112721 | 78 | 230 | 0.0 | 0.0 | 0.00 | 0.00 | 0.00 | 91 | 1009.3 |
| 20260901112621 | 78 | 230 | 0.0 | 0.0 | 0.00 | 0.00 | 0.00 | 91 | 1009.3 |
| 20260901112520 | 78 | 230 | 0.0 | 0.0 | 0.00 | 0.00 | 0.00 | 91 | 1009.4 |
| 20260901112420 | 78 | 228 | 0.0 | 0.0 | 0.00 | 0.00 | 0.00 | 91 | 1009.4 |
| 20260901112321 | 78 | 228 | 0.0 | 1.0 | 0.00 | 0.00 | 0.00 | 90 | 1009.3 |
| 20260901112221 | 78 | 228 | 0.0 | 1.0 | 0.00 | 0.00 | 0.00 | 90 | 1009.4 |
| 20260901112120 | 78 | 228 | 0.0 | 2.0 | 0.00 | 0.00 | 0.00 | 91 | 1009.4 |
| 20260901112019 | 78 | 228 | 0.0 | 3.0 | 0.00 | 0.00 | 0.00 | 91 | 1009.4 |
| 20260901111920 | 78 | 228 | 0.0 | 3.0 | 0.00 | 0.00 | 0.00 | 91 | 1009.3 |
| 20260901111820 | 78 | 228 | 0.0 | 3.0 | 0.00 | 0.00 | 0.00 | 91 | 1009.3 |
| 20260901111721 | 78 | 228 | 0.0 | 3.0 | 0.00 | 0.00 | 0.00 | 91 | 1009.3 |
| 20260901111621 | 78 | 227 | 0.0 | 3.0 | 0.00 | 0.00 | 0.00 | 91 | 1009.2 |
| 20260901111521 | 78 | 227 | 0.0 | 3.0 | 0.00 | 0.00 | 0.00 | 91 | 1009.2 |
| 20260901111422 | 78 | 227 | 0.0 | 3.0 | 0.00 | 0.00 | 0.00 | 91 | 1009.2 |
| 20260901111320 | 78 | 227 | 1.0 | 3.0 | 0.00 | 0.00 | 0.00 | 91 | 1009.2 |
| 20260901111220 | 78 | 227 | 2.0 | 3.0 | 0.00 | 0.00 | 0.00 | 91 | 1009.2 |
| 20260901111119 | 78 | 227 | 2.0 | 3.0 | 0.00 | 0.00 | 0.00 | 91 | 1009.2 |
| 20260901111020 | 78 | 227 | 2.0 | 3.0 | 0.00 | 0.00 | 0.00 | 91 | 1009.3 |
| 20260901110920 | 78 | 162 | 1.0 | 2.0 | 0.00 | 0.00 | 0.00 | 90 | 1009.3 |
| 20260901110820 | 78 | 161 | 2.0 | 2.0 | 0.00 | 0.00 | 0.00 | 90 | 1009.3 |
| 20260901110721 | 78 | 161 | 1.0 | 2.0 | 0.00 | 0.00 | 0.00 | 90 | 1009.3 |
| 20260901110619 | 78 | 159 | 0.0 | 2.0 | 0.00 | 0.00 | 0.00 | 90 | 1009.3 |
| 20260901110521 | 78 | 159 | 0.0 | 0.0 | 0.00 | 0.00 | 0.00 | 91 | 1009.3 |
| 20260901110419 | 78 | 159 | 0.0 | 0.0 | 0.00 | 0.00 | 0.00 | 91 | 1009.3 |
| 20260901110320 | 78 | 159 | 0.0 | 0.0 | 0.00 | 0.00 | 0.00 | 91 | 1009.3 |
| 20260901110220 | 78 | 159 | 0.0 | 0.0 | 0.00 | 0.00 | 0.00 | 91 | 1009.3 |
| 20260901110120 | 78 | 159 | 0.0 | 0.0 | 0.00 | 0.00 | 0.00 | 91 | 1009.3 |
| 20260901110021 | 78 | 159 | 0.0 | 0.0 | 0.00 | 0.00 | 0.00 | 90 | 1009.3 |
| 20260901105919 | 78 | 159 | 0.0 | 0.0 | 0.00 | 0.00 | 0.00 | 91 | 1009.3 |
| 20260901105821 | 78 | 159 | 0.0 | 0.0 | 0.00 | 0.00 | 0.00 | 90 | 1009.3 |
| 20260901105719 | 78 | 159 | 0.0 | 0.0 | 0.00 | 0.00 | 0.00 | 90 | 1009.3 |
| 20260901105619 | 78 | 159 | 0.0 | 0.0 | 0.00 | 0.00 | 0.00 | 91 | 1009.3 |
| 20260901105520 | 78 | 159 | 0.0 | 0.0 | 0.00 | 0.00 | 0.00 | 91 | 1009.3 |
| 20260901105421 | 78 | 159 | 0.0 | 0.0 | 0.00 | 0.00 | 0.00 | 91 | 1009.2 |
| 20260901105320 | 78 | 159 | 0.0 | 0.0 | 0.00 | 0.00 | 0.00 | 91 | 1009.3 |
| 20260901105218 | 78 | 159 | 0.0 | 0.0 | 0.00 | 0.00 | 0.00 | 91 | 1009.3 |
| 20260901105120 | 78 | 159 | 0.0 | 0.0 | 0.00 | 0.00 | 0.00 | 91 | 1009.3 |
| 20260901105020 | 78 | 159 | 0.0 | 0.0 | 0.00 | 0.00 | 0.00 | 91 | 1009.2 |
| 20260901104919 | 78 | 159 | 0.0 | 0.0 | 0.00 | 0.00 | 0.00 | 91 | 1009.3 |
| 20260901104819 | 78 | 159 | 0.0 | 0.0 | 0.00 | 0.00 | 0.00 | 91 | 1009.2 |
| 20260901104720 | 78 | 159 | 0.0 | 0.0 | 0.00 | 0.00 | 0.00 | 91 | 1009.2 |
| 20260901104620 | 78 | 159 | 0.0 | 0.0 | 0.00 | 0.00 | 0.00 | 91 | 1009.2 |
| 20260901104520 | 78 | 159 | 0.0 | 0.0 | 0.00 | 0.00 | 0.00 | 91 | 1009.2 |
| 20260901104420 | 78 | 159 | 0.0 | 0.0 | 0.00 | 0.00 | 0.00 | 91 | 1009.1 |
| 20260901104319 | 78 | 159 | 0.0 | 0.0 | 0.00 | 0.00 | 0.00 | 91 | 1009.2 |
| 20260901104218 | 78 | 159 | 0.0 | 0.0 | 0.00 | 0.00 | 0.00 | 91 | 1009.2 |
| 20260901104120 | 78 | 159 | 0.0 | 0.0 | 0.00 | 0.00 | 0.00 | 91 | 1009.2 |
| 20260901104019 | 78 | 159 | 0.0 | 0.0 | 0.00 | 0.00 | 0.00 | 91 | 1009.1 |
| 20260901103919 | 78 | 159 | 0.0 | 0.0 | 0.00 | 0.00 | 0.00 | 91 | 1009.1 |
| 20260901103819 | 78 | 161 | 0.0 | 0.0 | 0.00 | 0.00 | 0.00 | 91 | 1009.1 |
| 20260901103719 | 78 | 161 | 0.0 | 0.0 | 0.00 | 0.00 | 0.00 | 91 | 1009.1 |
| 20260901103618 | 78 | 161 | 0.0 | 0.0 | 0.00 | 0.00 | 0.00 | 91 | 1009.0 |
| 20260901103519 | 78 | 161 | 0.0 | 0.0 | 0.00 | 0.00 | 0.00 | 91 | 1009.1 |
| 20260901103419 | 78 | 161 | 0.0 | 0.0 | 0.00 | 0.00 | 0.00 | 91 | 1009.0 |
| 20260901103319 | 78 | 161 | 0.0 | 0.0 | 0.00 | 0.00 | 0.00 | 91 | 1009.0 |
| 20260901103218 | 78 | 161 | 0.0 | 0.0 | 0.00 | 0.00 | 0.00 | 91 | 1008.9 |
| 20260901103118 | 78 | 161 | 0.0 | 0.0 | 0.00 | 0.00 | 0.00 | 91 | 1008.9 |
| 20260901103020 | 78 | 161 | 0.0 | 0.0 | 0.00 | 0.00 | 0.00 | 91 | 1008.9 |
| 20260901102919 | 78 | 161 | 0.0 | 0.0 | 0.00 | 0.00 | 0.00 | 91 | 1008.9 |
| 20260901102819 | 78 | 159 | 0.0 | 0.0 | 0.00 | 0.00 | 0.00 | 91 | 1008.9 |
| 20260901102718 | 78 | 159 | 0.0 | 0.0 | 0.00 | 0.00 | 0.00 | 91 | 1009.0 |
| 20260901102618 | 78 | 159 | 0.0 | 0.0 | 0.00 | 0.00 | 0.00 | 91 | 1008.9 |
| 20260901102520 | 78 | 159 | 0.0 | 0.0 | 0.00 | 0.00 | 0.00 | 91 | 1009.0 |
| 20260901102418 | 78 | 159 | 0.0 | 0.0 | 0.00 | 0.00 | 0.00 | 91 | 1009.0 |
| 20260901102318 | 78 | 159 | 0.0 | 0.0 | 0.00 | 0.00 | 0.00 | 91 | 1009.0 |
| 20260901102220 | 78 | 159 | 0.0 | 0.0 | 0.00 | 0.00 | 0.00 | 91 | 1009.0 |
| 20260901102120 | 78 | 159 | 0.0 | 0.0 | 0.00 | 0.00 | 0.00 | 90 | 1009.0 |
| 20260901102018 | 78 | 159 | 0.0 | 0.0 | 0.00 | 0.00 | 0.00 | 90 | 1009.0 |
| 20260901101919 | 78 | 159 | 0.0 | 0.0 | 0.00 | 0.00 | 0.00 | 90 | 1009.0 |
| 20260901101819 | 78 | 159 | 0.0 | 0.0 | 0.00 | 0.00 | 0.00 | 91 | 1009.0 |
| 20260901101719 | 78 | 159 | 0.0 | 0.0 | 0.00 | 0.00 | 0.00 | 90 | 1009.0 |
| 20260901101618 | 78 | 159 | 0.0 | 0.0 | 0.00 | 0.00 | 0.00 | 90 | 1009.0 |
| 20260901101519 | 78 | 159 | 0.0 | 0.0 | 0.00 | 0.00 | 0.00 | 90 | 1009.1 |
| 20260901101419 | 78 | 159 | 0.0 | 0.0 | 0.00 | 0.00 | 0.00 | 91 | 1009.1 |
| 20260901101317 | 78 | 159 | 0.0 | 0.0 | 0.00 | 0.00 | 0.00 | 90 | 1009.1 |
| 20260901101219 | 78 | 159 | 0.0 | 0.0 | 0.00 | 0.00 | 0.00 | 90 | 1009.0 |
| 20260901101118 | 78 | 159 | 0.0 | 0.0 | 0.00 | 0.00 | 0.00 | 90 | 1009.1 |
| 20260901101019 | 78 | 159 | 0.0 | 0.0 | 0.00 | 0.00 | 0.00 | 90 | 1009.1 |
| 20260901100920 | 78 | 159 | 0.0 | 0.0 | 0.00 | 0.00 | 0.00 | 90 | 1009.1 |
| 20260901100819 | 78 | 159 | 0.0 | 0.0 | 0.00 | 0.00 | 0.00 | 90 | 1009.1 |
| 20260901100718 | 78 | 159 | 0.0 | 0.0 | 0.00 | 0.00 | 0.00 | 90 | 1009.1 |
| 20260901100621 | 78 | 159 | 0.0 | 0.0 | 0.00 | 0.00 | 0.00 | 90 | 1009.2 |
| 20260901100520 | 78 | 159 | 0.0 | 0.0 | 0.00 | 0.00 | 0.00 | 90 | 1009.1 |
| 20260901100419 | 78 | 159 | 0.0 | 0.0 | 0.00 | 0.00 | 0.00 | 90 | 1009.1 |
| 20260901100318 | 78 | 159 | 0.0 | 0.0 | 0.00 | 0.00 | 0.00 | 90 | 1009.2 |
| 20260901100219 | 78 | 159 | 0.0 | 0.0 | 0.00 | 0.00 | 0.00 | 90 | 1009.1 |
| 20260901100119 | 78 | 159 | 0.0 | 0.0 | 0.00 | 0.00 | 0.00 | 90 | 1009.1 |
| 20260901100019 | 78 | 159 | 0.0 | 0.0 | 0.00 | 0.00 | 0.00 | 90 | 1009.0 |
| 20260901095917 | 79 | 159 | 0.0 | 0.0 | 0.00 | 0.00 | 0.00 | 90 | 1009.0 |
| 20260901095818 | 79 | 159 | 0.0 | 0.0 | 0.00 | 0.00 | 0.00 | 90 | 1009.0 |
| 20260901095718 | 79 | 159 | 0.0 | 0.0 | 0.00 | 0.00 | 0.00 | 90 | 1009.0 |
| 20260901095617 | 79 | 159 | 0.0 | 0.0 | 0.00 | 0.00 | 0.00 | 90 | 1009.0 |
| 20260901095517 | 79 | 159 | 0.0 | 0.0 | 0.00 | 0.00 | 0.00 | 90 | 1009.0 |
| 20260901095418 | 79 | 159 | 0.0 | 0.0 | 0.00 | 0.00 | 0.00 | 90 | 1009.0 |
| 20260901095317 | 79 | 159 | 0.0 | 0.0 | 0.00 | 0.00 | 0.00 | 90 | 1009.1 |
| 20260901095219 | 79 | 159 | 0.0 | 0.0 | 0.00 | 0.00 | 0.00 | 90 | 1009.1 |
| 20260901095118 | 79 | 159 | 0.0 | 0.0 | 0.00 | 0.00 | 0.00 | 90 | 1009.1 |
| 20260901095019 | 79 | 159 | 0.0 | 0.0 | 0.00 | 0.00 | 0.00 | 90 | 1009.2 |
| 20260901094917 | 79 | 159 | 0.0 | 0.0 | 0.00 | 0.00 | 0.00 | 90 | 1009.2 |
| 20260901094817 | 79 | 159 | 0.0 | 0.0 | 0.00 | 0.00 | 0.00 | 90 | 1009.2 |
| 20260901094718 | 79 | 159 | 0.0 | 0.0 | 0.00 | 0.00 | 0.00 | 90 | 1009.1 |
| 20260901094617 | 79 | 159 | 0.0 | 0.0 | 0.00 | 0.00 | 0.00 | 90 | 1009.2 |
| 20260901094520 | 79 | 159 | 0.0 | 0.0 | 0.00 | 0.00 | 0.00 | 90 | 1009.2 |
| 20260901094418 | 79 | 159 | 0.0 | 0.0 | 0.00 | 0.00 | 0.00 | 90 | 1009.2 |
| 20260901094317 | 79 | 159 | 0.0 | 0.0 | 0.00 | 0.00 | 0.00 | 90 | 1009.2 |
| 20260901094220 | 79 | 159 | 0.0 | 0.0 | 0.00 | 0.00 | 0.00 | 90 | 1009.1 |
| 20260901094119 | 78 | 159 | 0.0 | 0.0 | 0.00 | 0.00 | 0.00 | 90 | 1009.1 |
| 20260901094018 | 78 | 159 | 0.0 | 0.0 | 0.00 | 0.00 | 0.00 | 90 | 1009.2 |
| 20260901093917 | 78 | 159 | 0.0 | 0.0 | 0.00 | 0.00 | 0.00 | 90 | 1009.1 |
| 20260901093819 | 78 | 159 | 0.0 | 0.0 | 0.00 | 0.00 | 0.00 | 90 | 1009.2 |
| 20260901093718 | 78 | 159 | 0.0 | 0.0 | 0.00 | 0.00 | 0.00 | 90 | 1009.2 |
| 20260901093619 | 78 | 159 | 0.0 | 0.0 | 0.00 | 0.00 | 0.00 | 90 | 1009.0 |
| 20260901093518 | 78 | 159 | 0.0 | 0.0 | 0.00 | 0.00 | 0.00 | 90 | 1009.1 |
| 20260901093417 | 78 | 159 | 0.0 | 0.0 | 0.00 | 0.00 | 0.00 | 90 | 1009.1 |
| 20260901093318 | 78 | 159 | 0.0 | 0.0 | 0.00 | 0.00 | 0.00 | 90 | 1009.1 |
| 20260901093218 | 78 | 159 | 0.0 | 0.0 | 0.00 | 0.00 | 0.00 | 90 | 1009.2 |
| 20260901093118 | 78 | 159 | 0.0 | 0.0 | 0.00 | 0.00 | 0.00 | 90 | 1009.2 |
| 20260901093018 | 78 | 159 | 0.0 | 0.0 | 0.00 | 0.00 | 0.00 | 90 | 1009.1 |
| 20260901092917 | 78 | 159 | 0.0 | 0.0 | 0.00 | 0.00 | 0.00 | 89 | 1009.1 |
| 20260901092817 | 79 | 159 | 0.0 | 0.0 | 0.00 | 0.00 | 0.00 | 89 | 1009.0 |
| 20260901092719 | 79 | 159 | 0.0 | 0.0 | 0.00 | 0.00 | 0.00 | 90 | 1009.1 |
| 20260901092619 | 79 | 159 | 0.0 | 0.0 | 0.00 | 0.00 | 0.00 | 90 | 1009.1 |
| 20260901092519 | 79 | 159 | 0.0 | 0.0 | 0.00 | 0.00 | 0.00 | 90 | 1009.1 |
| 20260901092418 | 79 | 159 | 0.0 | 0.0 | 0.00 | 0.00 | 0.00 | 89 | 1009.1 |
| 20260901092317 | 79 | 159 | 0.0 | 0.0 | 0.00 | 0.00 | 0.00 | 89 | 1009.1 |
| 20260901092218 | 79 | 159 | 0.0 | 0.0 | 0.00 | 0.00 | 0.00 | 89 | 1009.1 |
| 20260901092120 | 79 | 159 | 0.0 | 0.0 | 0.00 | 0.00 | 0.00 | 89 | 1009.1 |
| 20260901092017 | 79 | 159 | 0.0 | 0.0 | 0.00 | 0.00 | 0.00 | 89 | 1009.1 |
| 20260901091917 | 79 | 161 | 0.0 | 0.0 | 0.00 | 0.00 | 0.00 | 89 | 1009.2 |
| 20260901091817 | 79 | 161 | 0.0 | 0.0 | 0.00 | 0.00 | 0.00 | 89 | 1009.1 |
| 20260901091718 | 79 | 159 | 0.0 | 0.0 | 0.00 | 0.00 | 0.00 | 89 | 1009.1 |
| 20260901091618 | 79 | 161 | 0.0 | 0.0 | 0.00 | 0.00 | 0.00 | 89 | 1009.1 |
| 20260901091517 | 79 | 161 | 0.0 | 0.0 | 0.00 | 0.00 | 0.00 | 89 | 1009.1 |
| 20260901091418 | 79 | 159 | 0.0 | 0.0 | 0.00 | 0.00 | 0.00 | 89 | 1009.1 |
| 20260901091317 | 79 | 161 | 0.0 | 0.0 | 0.00 | 0.00 | 0.00 | 89 | 1009.1 |
| 20260901091218 | 79 | 161 | 0.0 | 0.0 | 0.00 | 0.00 | 0.00 | 89 | 1009.2 |
| 20260901091109 | 79 | 161 | 0.0 | 0.0 | 0.00 | 0.00 | 0.00 | 89 | 1009.1 |
| 20260901091009 | 79 | 161 | 0.0 | 0.0 | 0.00 | 0.00 | 0.00 | 89 | 1009.1 |
| 20260901090907 | 79 | 161 | 0.0 | 0.0 | 0.00 | 0.00 | 0.00 | 89 | 1009.1 |
| 20260901090807 | 79 | 161 | 0.0 | 0.0 | 0.00 | 0.00 | 0.00 | 88 | 1009.2 |
| 20260901090704 | 79 | 161 | 0.0 | 0.0 | 0.00 | 0.00 | 0.00 | 88 | 1009.0 |
| 20260901090603 | 79 | 161 | 0.0 | 0.0 | 0.00 | 0.00 | 0.00 | 88 | 1009.0 |
| 20260901090503 | 79 | 161 | 0.0 | 0.0 | 0.00 | 0.00 | 0.00 | 89 | 1009.1 |
| 20260901090401 | 79 | 161 | 0.0 | 0.0 | 0.00 | 0.00 | 0.00 | 89 | 1009.1 |
| 20260901090304 | 79 | 161 | 0.0 | 0.0 | 0.00 | 0.00 | 0.00 | 89 | 1009.1 |
| 20260901090202 | 79 | 161 | 0.0 | 0.0 | 0.00 | 0.00 | 0.00 | 89 | 1009.1 |
| 20260901090103 | 79 | 161 | 0.0 | 0.0 | 0.00 | 0.00 | 0.00 | 89 | 1009.1 |
| 20260901090003 | 79 | 161 | 0.0 | 0.0 | 0.00 | 0.00 | 0.00 | 89 | 1009.1 |
| 20260901085904 | 79 | 159 | 0.0 | 0.0 | 0.00 | 0.00 | 0.00 | 88 | 1009.1 |
| 20260901085803 | 79 | 161 | 0.0 | 0.0 | 0.00 | 0.00 | 0.00 | 88 | 1009.0 |
| 20260901085700 | 79 | 161 | 0.0 | 0.0 | 0.00 | 0.00 | 0.00 | 88 | 1009.1 |
| 20260901085551 | 79 | 161 | 0.0 | 0.0 | 0.00 | 0.00 | 0.00 | 88 | 1009.0 |
| 20260901085449 | 79 | 159 | 0.0 | 0.0 | 0.00 | 0.00 | 0.00 | 88 | 1009.1 |
| 20260901085346 | 79 | 161 | 0.0 | 0.0 | 0.00 | 0.00 | 0.00 | 88 | 1009.1 |
| 20260901085246 | 79 | 161 | 0.0 | 0.0 | 0.00 | 0.00 | 0.00 | 88 | 1009.1 |
| 20260901085144 | 79 | 161 | 0.0 | 0.0 | 0.00 | 0.00 | 0.00 | 88 | 1009.1 |
| 20260901085043 | 79 | 161 | 0.0 | 0.0 | 0.00 | 0.00 | 0.00 | 88 | 1009.1 |
| 20260901084941 | 80 | 161 | 0.0 | 0.0 | 0.00 | 0.00 | 0.00 | 88 | 1009.2 |
| 20260901084831 | 80 | 161 | 0.0 | 0.0 | 0.00 | 0.00 | 0.00 | 88 | 1009.2 |
| 20260901084730 | 80 | 161 | 0.0 | 0.0 | 0.00 | 0.00 | 0.00 | 88 | 1009.1 |
| 20260901084632 | 80 | 161 | 0.0 | 0.0 | 0.00 | 0.00 | 0.00 | 88 | 1009.2 |
| 20260901084531 | 80 | 161 | 0.0 | 0.0 | 0.00 | 0.00 | 0.00 | 88 | 1009.2 |
| 20260901084431 | 80 | 159 | 0.0 | 0.0 | 0.00 | 0.00 | 0.00 | 88 | 1009.1 |
| 20260901084332 | 80 | 159 | 0.0 | 0.0 | 0.00 | 0.00 | 0.00 | 88 | 1009.2 |
| 20260901084232 | 80 | 161 | 0.0 | 0.0 | 0.00 | 0.00 | 0.00 | 88 | 1009.2 |
| 20260901084131 | 80 | 161 | 0.0 | 0.0 | 0.00 | 0.00 | 0.00 | 88 | 1009.2 |
| 20260901084030 | 80 | 161 | 0.0 | 0.0 | 0.00 | 0.00 | 0.00 | 88 | 1009.2 |
| 20260901083931 | 80 | 161 | 0.0 | 0.0 | 0.00 | 0.00 | 0.00 | 88 | 1009.2 |
| 20260901083831 | 80 | 161 | 0.0 | 0.0 | 0.00 | 0.00 | 0.00 | 88 | 1009.2 |
| 20260901083732 | 80 | 161 | 0.0 | 0.0 | 0.00 | 0.00 | 0.00 | 88 | 1009.3 |
| 20260901083632 | 80 | 161 | 0.0 | 0.0 | 0.00 | 0.00 | 0.00 | 88 | 1009.2 |
| 20260901083531 | 80 | 161 | 0.0 | 0.0 | 0.00 | 0.00 | 0.00 | 88 | 1009.2 |
| 20260901083433 | 80 | 161 | 0.0 | 0.0 | 0.00 | 0.00 | 0.00 | 88 | 1009.3 |
| 20260901083332 | 80 | 161 | 0.0 | 0.0 | 0.00 | 0.00 | 0.00 | 88 | 1009.2 |
| 20260901083219 | 80 | 161 | 0.0 | 0.0 | 0.00 | 0.00 | 0.00 | 88 | 1009.3 |
| 20260901083117 | 80 | 161 | 0.0 | 0.0 | 0.00 | 0.00 | 0.00 | 88 | 1009.3 |
| 20260901083017 | 80 | 161 | 0.0 | 0.0 | 0.00 | 0.00 | 0.00 | 87 | 1009.3 |
| 20260901082916 | 80 | 161 | 0.0 | 0.0 | 0.00 | 0.00 | 0.00 | 87 | 1009.3 |
| 20260901082816 | 80 | 161 | 0.0 | 0.0 | 0.00 | 0.00 | 0.00 | 87 | 1009.3 |
| 20260901082717 | 80 | 161 | 0.0 | 0.0 | 0.00 | 0.00 | 0.00 | 87 | 1009.2 |
| 20260901082615 | 80 | 161 | 0.0 | 0.0 | 0.00 | 0.00 | 0.00 | 87 | 1009.2 |
| 20260901082517 | 80 | 161 | 0.0 | 0.0 | 0.00 | 0.00 | 0.00 | 87 | 1009.2 |
| 20260901082417 | 80 | 161 | 0.0 | 0.0 | 0.00 | 0.00 | 0.00 | 87 | 1009.3 |
| 20260901082316 | 80 | 161 | 0.0 | 0.0 | 0.00 | 0.00 | 0.00 | 87 | 1009.2 |
| 20260901082216 | 80 | 161 | 0.0 | 0.0 | 0.00 | 0.00 | 0.00 | 87 | 1009.3 |
| 20260901082117 | 80 | 161 | 0.0 | 0.0 | 0.00 | 0.00 | 0.00 | 87 | 1009.3 |
| 20260901082016 | 80 | 161 | 0.0 | 0.0 | 0.00 | 0.00 | 0.00 | 87 | 1009.3 |
| 20260901081915 | 80 | 161 | 0.0 | 0.0 | 0.00 | 0.00 | 0.00 | 87 | 1009.3 |
| 20260901081816 | 80 | 161 | 0.0 | 0.0 | 0.00 | 0.00 | 0.00 | 87 | 1009.3 |
| 20260901081716 | 80 | 161 | 0.0 | 0.0 | 0.00 | 0.00 | 0.00 | 87 | 1009.3 |
| 20260901081616 | 80 | 161 | 0.0 | 0.0 | 0.00 | 0.00 | 0.00 | 87 | 1009.4 |
| 20260901081517 | 80 | 161 | 0.0 | 0.0 | 0.00 | 0.00 | 0.00 | 87 | 1009.4 |
| 20260901081415 | 80 | 161 | 0.0 | 0.0 | 0.00 | 0.00 | 0.00 | 87 | 1009.4 |
| 20260901081316 | 80 | 161 | 0.0 | 0.0 | 0.00 | 0.00 | 0.00 | 87 | 1009.4 |
| 20260901081217 | 80 | 161 | 0.0 | 0.0 | 0.00 | 0.00 | 0.00 | 87 | 1009.4 |
| 20260901081116 | 80 | 161 | 0.0 | 0.0 | 0.00 | 0.00 | 0.00 | 87 | 1009.4 |
| 20260901081017 | 81 | 161 | 0.0 | 0.0 | 0.00 | 0.00 | 0.00 | 87 | 1009.4 |
| 20260901080915 | 80 | 161 | 0.0 | 0.0 | 0.00 | 0.00 | 0.00 | 87 | 1009.4 |
| 20260901080815 | 80 | 161 | 0.0 | 0.0 | 0.00 | 0.00 | 0.00 | 87 | 1009.4 |
| 20260901080715 | 80 | 161 | 0.0 | 0.0 | 0.00 | 0.00 | 0.00 | 87 | 1009.4 |
| 20260901080617 | 81 | 161 | 0.0 | 0.0 | 0.00 | 0.00 | 0.00 | 87 | 1009.4 |
| 20260901080514 | 81 | 161 | 0.0 | 0.0 | 0.00 | 0.00 | 0.00 | 87 | 1009.4 |
| 20260901080412 | 81 | 161 | 0.0 | 0.0 | 0.00 | 0.00 | 0.00 | 87 | 1009.4 |
| 20260901080308 | 80 | 161 | 0.0 | 0.0 | 0.00 | 0.00 | 0.00 | 87 | 1009.5 |
| 20260901080208 | 80 | 159 | 0.0 | 0.0 | 0.00 | 0.00 | 0.00 | 87 | 1009.5 |
| 20260901080107 | 80 | 159 | 0.0 | 0.0 | 0.00 | 0.00 | 0.00 | 87 | 1009.5 |
| 20260901080002 | 81 | 159 | 0.0 | 0.0 | 0.00 | 0.00 | 0.00 | 87 | 1009.6 |
| 20260901075904 | 80 | 159 | 0.0 | 0.0 | 0.00 | 0.00 | 0.00 | 87 | 1009.6 |
| 20260901075803 | 80 | 159 | 0.0 | 0.0 | 0.00 | 0.00 | 0.00 | 87 | 1009.5 |
| 20260901075704 | 80 | 159 | 0.0 | 0.0 | 0.00 | 0.00 | 0.00 | 87 | 1009.6 |
| 20260901075603 | 80 | 159 | 0.0 | 0.0 | 0.00 | 0.00 | 0.00 | 87 | 1009.6 |
| 20260901075505 | 80 | 159 | 0.0 | 0.0 | 0.00 | 0.00 | 0.00 | 87 | 1009.6 |
| 20260901075404 | 81 | 159 | 0.0 | 0.0 | 0.00 | 0.00 | 0.00 | 87 | 1009.6 |
| 20260901075307 | 81 | 159 | 0.0 | 0.0 | 0.00 | 0.00 | 0.00 | 87 | 1009.5 |
| 20260901075203 | 81 | 159 | 0.0 | 0.0 | 0.00 | 0.00 | 0.00 | 87 | 1009.6 |
| 20260901075103 | 81 | 159 | 0.0 | 0.0 | 0.00 | 0.00 | 0.00 | 87 | 1009.6 |
| 20260901075001 | 81 | 159 | 0.0 | 0.0 | 0.00 | 0.00 | 0.00 | 87 | 1009.6 |
| 20260901074903 | 80 | 159 | 0.0 | 0.0 | 0.00 | 0.00 | 0.00 | 87 | 1009.6 |
| 20260901074803 | 81 | 159 | 0.0 | 0.0 | 0.00 | 0.00 | 0.00 | 87 | 1009.6 |
| 20260901074703 | 81 | 159 | 0.0 | 0.0 | 0.00 | 0.00 | 0.00 | 87 | 1009.7 |
| 20260901074601 | 81 | 159 | 0.0 | 0.0 | 0.00 | 0.00 | 0.00 | 87 | 1009.6 |
| 20260901074504 | 81 | 159 | 0.0 | 0.0 | 0.00 | 0.00 | 0.00 | 87 | 1009.6 |
| 20260901074404 | 81 | 157 | 0.0 | 0.0 | 0.00 | 0.00 | 0.00 | 86 | 1009.7 |
| 20260901074304 | 81 | 157 | 0.0 | 0.0 | 0.00 | 0.00 | 0.00 | 86 | 1009.6 |
| 20260901074204 | 81 | 157 | 0.0 | 0.0 | 0.00 | 0.00 | 0.00 | 86 | 1009.6 |
| 20260901074103 | 81 | 157 | 0.0 | 0.0 | 0.00 | 0.00 | 0.00 | 86 | 1009.6 |
| 20260901074004 | 81 | 157 | 0.0 | 0.0 | 0.00 | 0.00 | 0.00 | 86 | 1009.6 |
| 20260901073904 | 81 | 157 | 0.0 | 0.0 | 0.00 | 0.00 | 0.00 | 86 | 1009.6 |
| 20260901073802 | 81 | 157 | 0.0 | 0.0 | 0.00 | 0.00 | 0.00 | 86 | 1009.7 |
| 20260901073703 | 81 | 157 | 0.0 | 0.0 | 0.00 | 0.00 | 0.00 | 86 | 1009.6 |
| 20260901073603 | 81 | 157 | 0.0 | 0.0 | 0.00 | 0.00 | 0.00 | 86 | 1009.7 |
| 20260901073503 | 81 | 157 | 0.0 | 0.0 | 0.00 | 0.00 | 0.00 | 86 | 1009.6 |
| 20260901073403 | 81 | 157 | 0.0 | 0.0 | 0.00 | 0.00 | 0.00 | 86 | 1009.6 |
| 20260901073303 | 81 | 157 | 0.0 | 0.0 | 0.00 | 0.00 | 0.00 | 86 | 1009.7 |
| 20260901073204 | 81 | 157 | 0.0 | 0.0 | 0.00 | 0.00 | 0.00 | 86 | 1009.6 |
| 20260901073103 | 81 | 157 | 0.0 | 0.0 | 0.00 | 0.00 | 0.00 | 86 | 1009.6 |
| 20260901073003 | 81 | 157 | 0.0 | 0.0 | 0.00 | 0.00 | 0.00 | 86 | 1009.6 |
| 20260901072903 | 81 | 157 | 0.0 | 0.0 | 0.00 | 0.00 | 0.00 | 86 | 1009.6 |
| 20260901072804 | 81 | 157 | 0.0 | 0.0 | 0.00 | 0.00 | 0.00 | 86 | 1009.6 |
| 20260901072702 | 81 | 157 | 0.0 | 0.0 | 0.00 | 0.00 | 0.00 | 86 | 1009.6 |
| 20260901072603 | 81 | 157 | 0.0 | 0.0 | 0.00 | 0.00 | 0.00 | 86 | 1009.6 |
| 20260901072504 | 81 | 157 | 0.0 | 0.0 | 0.00 | 0.00 | 0.00 | 86 | 1009.6 |
| 20260901072403 | 81 | 157 | 0.0 | 0.0 | 0.00 | 0.00 | 0.00 | 86 | 1009.7 |